GFSCGP_250_spd_036.txt.gz
Wind_Speed
30 36 33 32 34 32 32 28 33 26 23 24 23 22 23 24 23 22 20 22 26 30 46 51 48 46 48 55 55 57 59 64 68 72 73 74 74 73 68 66 64 62 60 62
34 36 34 33 34 32 29 30 28 24 21 22 21 19 22 27 29 27 26 24 29 30 38 38 46 53 58 59 55 61 65 67 64 65 67 65 58 55 51 52 55 59 63 67
33 34 33 34 35 33 33 30 26 26 22 24 26 28 25 29 29 30 32 37 42 39 44 44 50 55 58 61 61 58 58 59 54 54 52 50 47 48 51 54 57 60 63 65
36 36 33 36 35 37 31 25 27 21 18 19 25 27 28 29 30 27 32 40 43 47 48 51 55 57 56 56 57 57 52 47 46 42 42 44 46 47 49 52 54 58 62 65
36 38 39 38 34 29 27 26 24 21 24 25 24 25 28 27 28 30 34 38 41 45 47 49 48 48 48 46 45 41 38 35 33 38 40 40 40 42 46 50 54 55 60 64
34 36 31 33 29 23 24 21 24 25 27 28 31 26 30 31 31 32 34 37 36 36 36 37 37 38 37 35 31 31 25 32 34 36 39 41 46 50 54 59 62 65 66 67
24 22 28 26 24 23 24 24 26 27 31 33 30 30 35 26 35 30 42 32 31 31 33 30 26 27 27 28 29 29 28 33 37 41 45 48 53 55 60 65 67 71 73 73
25 29 29 27 25 24 26 25 27 29 36 29 34 35 33 31 32 28 31 30 30 26 23 24 26 26 27 28 29 31 35 37 43 46 49 53 56 62 66 72 76 77 79 78
33 32 30 29 27 29 26 29 29 30 34 32 32 30 27 25 25 26 28 27 25 25 26 25 26 28 29 31 34 36 40 42 48 50 53 57 62 68 73 77 80 83 84 80
34 34 35 31 31 31 32 31 31 31 31 28 24 28 21 26 25 25 25 26 27 27 26 27 29 30 33 36 39 42 45 48 52 56 61 64 69 76 79 82 85 87 85 82
36 33 33 34 34 34 34 34 32 28 27 26 26 21 24 23 24 24 25 27 26 27 29 31 33 36 39 42 45 50 52 53 57 61 67 71 76 80 82 85 88 86 85 85
33 34 34 33 33 33 33 29 27 28 27 25 22 22 23 24 25 25 26 26 29 32 36 38 41 41 44 46 50 55 59 61 63 68 71 77 82 83 86 89 88 86 86 88
33 33 31 30 32 31 28 29 28 27 24 24 24 25 25 26 24 26 28 31 34 38 40 41 42 45 48 51 52 57 64 68 70 74 78 81 83 86 90 92 89 86 89 93
28 28 29 31 29 29 30 27 26 27 28 26 28 22 27 27 26 29 33 37 37 39 44 46 49 49 52 55 57 60 64 72 76 79 81 82 86 91 94 92 89 90 94 98
29 30 30 31 29 31 28 28 29 29 28 25 26 25 30 27 28 34 38 40 44 47 45 51 55 57 56 58 61 66 69 74 79 81 82 86 90 96 94 91 92 96 100 104
30 30 29 30 30 31 29 30 30 29 26 25 27 27 31 31 35 40 41 43 45 48 51 52 56 57 59 61 64 69 73 77 78 80 86 89 94 96 94 93 95 101 106 108
29 30 29 30 31 29 31 31 29 27 26 29 29 32 34 38 38 43 48 48 49 54 56 58 59 64 68 69 69 73 75 75 80 85 89 94 98 97 95 97 102 107 109 110
30 29 30 31 29 29 33 30 29 29 32 30 32 36 41 42 45 48 50 51 54 53 58 62 65 69 72 74 75 75 80 82 86 89 94 99 98 97 99 104 109 111 113 112
29 29 31 31 30 34 34 31 34 34 35 35 39 43 46 47 51 52 52 55 58 62 65 67 70 72 74 75 79 82 85 90 90 94 99 99 99 100 104 108 113 114 114 111
30 31 33 34 34 34 34 37 38 40 39 41 47 47 49 53 53 55 57 60 62 65 65 69 74 76 79 80 85 89 91 92 97 101 100 100 101 108 113 114 116 115 112 111
32 34 35 37 37 37 36 41 41 42 46 46 49 51 53 56 57 58 61 65 67 68 70 74 78 82 85 88 92 93 95 100 102 101 102 104 109 112 113 113 114 113 114 114
32 34 36 38 39 39 41 41 44 46 48 50 52 54 54 56 61 64 65 67 75 74 74 77 81 86 89 91 93 95 100 100 101 103 107 112 115 116 119 119 116 113 111 114
33 35 38 40 40 41 42 44 44 49 53 52 53 54 56 61 64 67 70 72 77 78 80 83 86 90 93 94 98 101 100 101 103 109 114 116 117 117 117 116 114 115 115 111
36 37 38 42 42 41 45 45 46 52 51 53 54 56 60 65 67 73 76 78 80 81 84 87 91 93 96 100 101 100 102 106 111 115 118 118 117 116 115 114 115 113 111 111
39 42 43 46 45 48 45 44 52 52 52 54 58 61 65 68 73 78 80 81 84 85 88 91 94 99 100 99 100 103 110 114 117 119 119 117 115 113 115 115 113 112 110 105
44 45 48 48 48 53 48 50 52 54 57 62 65 66 70 74 79 83 85 86 88 91 93 97 101 99 98 101 106 111 115 118 119 117 116 111 112 114 113 111 107 106 102 97

GFSCGP_250_spd_039.txt.gz
Wind_Speed
15 28 27 29 31 34 34 33 28 26 26 24 24 26 25 23 21 22 25 24 29 37 45 44 48 53 53 50 49 55 51 58 63 67 66 59 67 73 70 68 69 71 72 72
17 33 31 30 32 33 33 29 25 26 28 27 20 21 22 24 25 25 27 27 27 28 27 27 43 53 56 56 49 56 60 57 60 62 63 67 69 72 72 69 67 64 61 62
20 34 34 34 31 34 28 21 24 27 27 21 22 19 18 23 27 30 32 32 26 28 31 31 31 34 42 45 54 58 60 60 67 69 68 67 64 61 57 56 56 54 52 50
19 29 36 35 32 31 23 22 19 25 23 23 25 26 29 27 27 32 32 33 35 34 40 43 43 43 43 47 50 54 56 58 60 59 56 55 53 50 49 46 47 49 49 52
21 26 31 33 29 29 24 22 21 23 20 24 22 22 20 21 25 23 32 35 36 36 40 42 45 45 46 49 50 51 51 50 49 47 49 45 44 45 44 46 50 51 57 63
24 24 32 32 24 25 25 22 21 21 22 26 26 24 21 25 25 25 30 30 34 36 36 38 40 40 40 41 42 42 41 43 45 43 42 45 45 44 45 48 52 55 61 66
19 23 28 27 23 26 24 22 22 26 27 32 27 24 23 27 28 29 32 34 28 26 27 33 35 36 36 36 36 35 38 43 42 42 45 48 47 47 48 52 58 63 68 73
14 14 18 17 23 27 25 23 20 25 30 32 29 29 26 29 32 32 38 36 31 29 32 33 33 32 32 32 35 36 37 40 43 46 48 52 54 53 54 61 66 71 77 80
15 19 21 24 25 26 27 23 24 27 29 30 30 29 31 33 34 35 29 29 34 39 39 31 28 29 32 31 36 37 38 41 47 52 55 57 61 59 63 67 71 78 83 84
20 26 28 30 29 29 27 28 28 27 29 32 32 29 28 33 28 27 28 29 31 30 29 29 30 32 34 36 38 42 43 45 51 56 60 63 67 67 70 74 79 83 84 87
26 31 30 29 30 30 31 33 31 29 31 34 31 26 28 33 29 27 29 26 25 26 30 33 33 35 38 42 45 47 49 50 53 57 62 65 69 72 76 79 83 83 86 92
29 30 32 28 32 35 35 32 34 33 33 34 31 26 32 31 31 28 23 25 27 31 33 33 34 36 40 42 47 52 55 54 55 56 61 66 70 74 77 81 82 84 89 93
31 35 34 34 37 34 37 34 33 32 31 32 30 31 32 31 28 23 26 28 31 33 35 36 37 38 41 44 49 53 56 57 59 61 64 67 71 73 75 79 85 89 92 97
32 34 35 35 37 34 32 32 31 29 34 32 35 33 31 28 22 24 32 33 36 37 38 39 40 43 44 46 50 54 58 63 67 69 70 70 72 77 81 86 91 93 98 102
29 31 31 31 28 27 30 28 30 32 35 34 34 33 27 25 24 28 33 38 42 42 44 44 46 50 53 53 55 58 63 67 71 70 73 76 79 83 88 91 94 100 103 101
26 27 26 29 28 29 30 32 33 34 36 35 32 28 28 24 28 33 37 40 40 44 47 52 53 55 57 60 63 64 68 72 73 75 80 84 88 91 94 96 101 105 101 103
27 28 29 31 31 30 32 33 33 37 36 33 27 25 27 34 36 35 39 43 48 50 55 58 61 60 62 64 69 72 72 75 77 80 84 90 93 95 98 103 104 102 104 109
31 29 30 32 30 31 36 35 35 35 30 26 28 31 34 37 39 42 43 46 50 53 56 60 61 65 68 71 74 77 79 80 83 85 91 94 97 100 103 103 103 107 112 117
31 30 30 30 31 33 32 33 32 30 29 30 34 37 38 40 43 46 49 51 54 57 59 60 64 69 71 72 75 80 82 84 87 91 94 97 103 104 103 105 109 115 118 118
34 32 29 30 30 30 30 32 33 31 31 36 39 41 44 46 48 51 53 54 56 59 63 66 70 72 74 78 81 84 86 89 92 95 100 105 104 103 105 111 116 120 120 118
33 33 29 29 30 31 32 34 35 36 38 42 43 46 48 52 53 54 56 58 59 63 67 69 72 75 78 80 84 88 90 92 96 100 105 103 103 107 113 117 120 120 117 116
35 33 31 30 31 33 35 36 38 41 44 45 47 48 51 55 58 58 59 59 62 66 69 74 78 81 83 85 88 91 93 96 101 103 101 103 110 115 118 121 121 119 117 113
37 36 36 33 34 34 36 37 42 47 48 46 49 51 54 57 58 60 61 64 67 69 73 79 82 86 90 92 92 94 98 104 103 102 105 111 116 120 121 119 114 111 113 113
40 40 38 38 36 35 36 39 43 51 49 51 53 55 56 59 61 62 65 69 72 75 79 84 87 90 94 95 95 98 105 104 103 108 113 118 120 119 114 112 112 112 111 108
41 43 42 43 38 39 39 41 45 50 50 53 55 59 60 61 63 67 71 74 78 81 84 87 90 94 95 95 99 106 104 105 109 115 120 120 118 114 111 112 112 110 109 102
43 44 44 44 43 43 45 47 49 51 52 56 59 61 63 66 69 73 76 79 83 86 88 91 94 94 97 101 106 104 105 111 117 121 119 117 114 112 111 112 112 110 105 98

GFSCGP_250_spd_045.txt.gz
Wind_Speed
36 23 19 16 15 12 14 17 20 21 22 22 23 25 22 32 42 42 35 25 30 31 30 36 38 40 42 44 49 54 61 58 56 58 59 58 62 60 67 70 70 66 68 74
34 25 18 20 15 11 12 17 20 22 24 24 22 19 23 23 27 37 35 36 39 33 39 43 42 44 41 38 44 46 51 55 61 60 59 60 57 62 63 67 67 71 75 76
32 27 17 21 16 13 13 16 16 19 24 23 19 15 13 16 25 26 35 37 32 36 39 40 45 45 45 47 44 48 49 54 61 62 65 70 69 72 74 74 72 71 68 69
34 27 18 15 18 15 15 15 16 20 22 21 18 16 15 14 19 24 27 29 31 28 32 38 38 40 41 45 41 39 39 46 54 50 52 53 55 53 56 61 62 62 64 65
34 27 20 12 16 15 15 15 15 21 22 19 20 20 22 21 22 21 23 24 25 29 31 36 40 43 44 45 46 50 48 48 51 54 58 57 57 57 58 57 59 61 60 65
36 23 20 13 10 18 17 18 16 23 22 21 23 23 22 22 23 24 24 26 28 28 30 35 38 40 39 43 44 45 48 49 51 50 47 47 50 51 53 54 57 60 64 68
44 22 18 9 7 15 19 21 19 21 21 19 20 20 20 21 23 23 24 25 26 27 30 34 36 36 37 38 42 43 41 35 36 39 42 44 47 51 54 56 60 63 67 69
42 32 17 13 7 11 17 21 20 25 25 23 22 20 26 27 25 25 25 27 30 32 33 37 38 38 37 37 35 31 29 31 35 39 43 48 51 56 57 57 61 62 63 66
42 36 21 18 15 10 14 19 20 23 23 19 19 19 25 27 28 26 26 30 33 35 31 32 33 34 31 28 27 29 31 36 39 43 49 52 55 56 55 59 62 65 68 72
43 43 24 20 22 19 17 21 21 23 22 20 18 21 24 23 27 27 26 29 33 35 34 32 30 31 29 29 30 32 35 37 44 49 52 53 50 54 58 61 65 68 71 71
46 40 27 21 23 17 14 20 21 17 19 19 19 23 25 27 27 29 32 35 32 29 28 27 29 30 30 29 31 36 40 43 46 48 48 50 54 57 59 62 67 70 72 74
46 41 37 23 21 21 18 17 22 24 26 27 27 27 28 27 29 31 34 32 27 28 29 30 31 30 30 33 37 39 41 43 43 47 51 55 57 59 63 66 67 70 73 78
45 43 41 28 22 25 26 23 23 27 30 32 28 31 26 30 30 30 28 30 28 29 30 31 31 31 34 35 37 38 38 40 47 52 56 60 62 64 66 66 70 74 79 83
44 44 45 32 27 25 28 31 29 31 32 31 33 30 28 28 29 27 29 32 33 32 32 30 31 32 34 36 37 40 42 43 52 59 63 63 64 67 68 71 75 81 84 88
46 46 47 34 27 28 30 33 36 33 33 32 32 28 25 23 24 28 30 32 37 36 29 31 33 34 37 37 39 42 50 56 60 63 64 66 68 69 73 77 82 85 89 89
49 48 43 36 29 27 27 26 27 28 24 21 24 26 27 26 26 30 32 35 37 32 33 34 35 37 40 43 47 53 56 60 63 64 66 68 69 74 78 83 87 90 90 92
49 45 43 36 29 22 21 31 23 20 23 24 25 28 28 27 28 29 34 33 33 34 35 36 39 41 44 49 53 57 59 62 65 66 68 70 74 79 84 87 89 91 93 96
48 44 43 36 27 20 31 30 27 27 26 25 27 29 31 30 30 31 31 32 33 34 37 40 43 46 51 54 57 59 62 65 67 69 72 76 79 85 88 90 93 92 94 101
48 45 43 35 29 25 30 32 31 30 27 29 31 32 31 31 29 28 30 32 35 38 41 44 48 52 55 57 61 64 66 69 71 75 79 82 86 89 92 95 96 97 103 106
49 48 43 36 30 28 36 32 34 30 27 34 35 32 29 28 28 29 33 36 39 42 46 49 53 55 58 61 64 66 70 72 75 79 83 87 91 93 93 96 96 101 104 104
49 47 41 34 30 32 37 33 32 33 38 34 34 32 30 30 32 35 38 41 44 47 50 54 57 59 62 65 67 71 74 76 80 84 88 90 93 95 96 98 101 105 104 107
51 46 39 36 30 32 39 34 34 38 40 37 35 33 33 36 38 39 42 45 49 52 55 57 59 63 65 69 72 75 77 81 85 88 90 93 96 96 98 101 105 104 108 111
49 47 43 37 32 36 40 39 39 38 39 41 40 38 38 40 42 44 47 50 53 55 58 60 63 66 70 73 76 79 81 85 89 92 94 96 98 99 101 105 103 107 112 115
50 46 42 38 37 41 42 43 42 39 40 43 45 44 44 45 47 48 51 53 56 59 61 63 67 71 75 78 80 82 86 90 93 94 96 97 99 101 105 103 107 112 114 116
46 45 43 40 40 41 42 43 44 44 43 45 48 49 50 51 52 54 56 58 60 63 65 69 73 76 79 81 84 87 90 92 94 96 97 99 101 105 103 107 113 114 115 118
46 43 45 42 40 41 44 46 47 47 47 47 49 52 54 56 58 59 61 63 65 68 72 75 79 81 83 85 88 91 93 94 96 98 100 103 106 104 108 112 111 115 119 120

GFSCGP_250_spd_051.txt.gz
Wind_Speed
49 52 54 57 38 32 7 6 7 5 3 8 7 5 11 20 24 19 19 18 17 12 19 17 16 19 25 27 26 29 34 38 40 48 43 41 43 47 55 67 66 68 71 75
45 47 54 57 39 30 8 5 7 7 8 9 8 8 14 15 22 22 23 22 19 24 24 23 22 20 19 20 24 24 31 33 38 40 44 44 43 46 51 55 62 60 62 64
43 44 49 56 44 29 11 3 5 6 7 9 11 9 14 14 18 21 26 25 20 22 28 31 28 27 26 24 29 30 31 33 36 37 38 39 41 44 49 51 54 57 54 58
42 44 48 51 52 29 22 10 4 6 8 12 10 11 10 12 13 16 16 24 30 29 30 27 28 28 32 33 36 35 39 33 34 37 40 44 47 46 47 51 54 53 56 57
41 42 45 50 51 35 27 15 8 8 9 9 10 11 14 16 13 13 16 21 25 30 34 34 37 38 30 30 30 31 29 30 34 38 41 41 45 48 50 52 55 59 61 59
40 41 44 48 50 41 26 21 13 9 9 9 10 11 12 16 18 17 15 14 16 21 23 24 25 26 23 26 27 28 31 33 36 37 42 45 45 47 51 53 52 51 53 56
42 40 43 48 48 42 27 20 17 13 11 10 16 18 17 18 16 18 19 19 16 18 18 19 20 23 25 28 28 29 31 33 36 37 41 43 45 45 43 40 44 48 53 55
41 40 43 43 46 43 32 20 20 19 17 14 17 21 20 19 18 18 17 17 17 17 18 20 22 24 27 28 29 32 35 37 38 40 39 38 38 36 35 39 45 52 56 59
41 38 39 43 45 41 35 19 17 18 17 18 19 21 22 21 19 20 22 23 24 24 25 25 25 27 30 31 34 36 37 39 39 37 36 33 31 34 40 44 50 54 61 62
37 35 37 42 43 37 31 24 16 16 17 19 21 24 24 24 23 24 24 25 28 30 29 28 30 31 33 33 36 38 38 35 33 31 31 31 34 39 43 46 52 60 63 65
38 36 33 39 40 37 38 28 22 17 20 22 23 26 29 26 25 24 24 26 27 28 31 31 33 34 35 38 36 32 31 30 29 30 28 31 35 39 43 49 57 61 65 68
38 35 35 36 36 37 40 32 27 22 23 25 28 33 30 28 29 28 27 27 29 31 32 34 36 36 37 34 33 32 32 30 30 31 32 34 38 43 48 56 57 59 65 72
37 35 35 35 38 37 41 38 32 21 25 29 29 36 31 30 29 32 33 33 34 37 37 37 37 38 32 31 31 33 34 32 32 33 36 40 43 50 52 58 60 67 72 75
37 36 37 36 39 37 39 40 36 27 26 31 31 35 35 35 34 37 39 40 41 41 39 37 38 35 33 31 32 35 35 35 37 41 42 45 49 54 58 61 66 69 73 78
39 37 39 38 38 37 40 42 40 31 27 29 36 33 39 37 40 41 41 42 43 43 42 36 32 34 34 33 36 37 38 41 41 43 48 52 55 58 62 65 68 72 77 80
40 39 39 38 39 39 38 43 39 34 28 27 32 33 38 37 38 38 39 40 42 42 39 38 37 35 35 37 39 41 43 45 47 49 52 55 59 61 64 68 73 77 79 83
43 41 41 39 40 38 38 40 37 32 31 25 24 32 32 31 31 31 31 32 37 39 40 41 41 42 42 42 43 43 44 47 49 52 55 58 61 64 68 73 77 78 82 85
44 43 43 42 38 34 43 44 37 35 33 25 28 31 28 26 28 29 30 30 32 35 39 43 44 45 46 46 45 44 45 47 51 54 58 62 65 69 73 76 78 83 83 85
43 45 44 39 35 34 37 46 38 38 32 33 28 28 28 27 27 29 29 31 35 38 39 41 42 44 45 45 45 46 49 52 56 60 64 66 69 73 76 79 82 82 84 87
44 46 43 39 37 33 41 41 44 40 36 35 26 30 31 31 30 31 34 37 37 37 38 39 41 42 44 46 48 50 54 58 62 65 67 70 72 76 79 81 82 84 87 91
47 48 46 40 35 34 35 46 44 44 38 36 31 31 34 36 36 36 36 39 40 39 39 40 42 44 46 48 52 55 59 62 65 67 69 73 78 80 81 83 85 88 91 95
48 46 44 42 40 33 45 42 47 45 42 34 32 33 37 39 40 39 39 40 42 44 45 46 47 48 50 53 56 59 61 64 68 72 75 77 78 81 83 87 90 92 96 98
48 47 47 49 43 40 45 47 48 46 40 35 36 36 38 40 40 41 42 43 44 45 47 50 52 53 55 57 60 63 66 69 72 74 76 79 81 84 88 90 93 96 98 98
50 50 52 54 48 48 45 47 51 45 42 41 40 37 38 40 41 40 39 41 44 47 50 52 54 56 58 61 64 67 69 71 73 76 78 81 84 87 90 92 95 96 98 101
55 56 56 55 52 51 50 55 48 47 45 44 45 40 39 42 43 41 42 43 45 47 50 53 54 55 57 61 64 67 69 71 73 76 79 82 85 89 91 94 95 98 101 105
54 53 56 53 54 52 51 52 47 48 50 50 49 48 46 46 47 46 47 48 50 51 54 57 58 61 66 66 67 69 72 76 79 81 84 87 91 93 93 95 99 102 106 112

GFSCGP_250_spd_054.txt.gz
Wind_Speed
38 38 42 44 46 52 45 30 12 7 8 3 6 8 10 13 22 18 16 18 7 22 19 22 23 20 20 18 22 30 32 35 37 43 52 52 42 44 52 58 54 54 56 60
34 35 41 42 44 49 50 31 17 8 7 6 9 10 10 17 20 23 22 25 23 17 11 14 15 19 26 25 27 25 23 26 33 41 41 45 46 46 45 52 57 58 60 60
32 35 40 41 43 49 48 28 29 10 7 7 10 10 10 14 23 24 20 22 24 21 21 23 25 23 23 22 25 26 25 24 25 26 30 39 43 43 43 46 49 49 54 55
31 35 38 41 43 47 45 33 27 16 7 8 12 13 13 16 16 19 19 21 22 25 23 25 24 28 28 28 28 29 27 29 35 34 33 34 36 38 40 44 45 47 49 51
32 34 37 39 40 40 47 38 20 22 12 10 10 11 14 13 14 15 17 16 18 29 28 28 30 32 34 35 32 34 37 34 34 35 36 39 39 40 42 45 49 50 54 58
33 33 36 37 37 37 43 33 19 19 17 12 10 11 13 10 15 16 16 16 17 21 24 29 32 35 35 37 35 31 29 27 30 33 38 40 44 42 44 45 47 49 52 54
34 33 35 35 33 34 38 32 21 17 20 16 15 14 17 16 15 21 21 19 20 17 18 22 25 25 27 28 27 28 30 31 34 35 37 37 39 41 42 43 46 47 46 46
35 34 34 32 31 31 33 33 26 16 18 22 22 17 18 20 19 19 21 23 25 23 21 22 22 23 25 29 33 33 34 33 35 35 36 38 38 40 44 42 42 37 39 42
36 36 33 30 30 29 29 31 25 20 17 19 26 25 19 22 23 22 21 20 24 24 22 22 24 25 27 30 31 33 35 36 36 39 39 38 38 38 39 39 38 42 45 48
39 38 33 30 28 26 27 30 29 24 20 20 25 28 22 24 26 26 25 25 25 24 25 28 30 30 32 32 32 34 36 38 39 39 39 41 41 39 37 42 46 46 46 51
41 40 34 30 28 26 26 31 30 26 23 24 25 28 27 25 25 27 28 26 26 26 26 26 26 29 31 32 33 35 38 40 42 38 39 42 41 41 42 45 44 46 50 55
42 41 35 32 28 25 25 29 28 28 28 21 27 32 30 26 27 29 31 31 31 31 31 28 29 30 33 36 38 38 40 38 38 40 41 42 42 41 42 44 48 51 56 60
46 42 37 34 30 25 24 26 31 28 27 25 24 34 31 28 32 36 35 35 35 34 33 33 34 35 37 39 39 39 39 41 41 42 43 44 44 43 45 49 53 57 61 66
49 43 39 35 31 25 25 28 32 27 27 27 26 31 33 32 32 37 39 38 37 39 40 40 40 39 40 41 42 43 42 44 45 44 45 46 46 48 51 54 59 63 67 70
48 44 41 35 31 27 26 33 32 28 25 24 28 26 35 36 35 34 37 42 43 44 45 47 44 41 41 44 45 44 44 42 43 45 46 48 49 52 55 58 63 67 71 74
47 44 40 35 33 30 31 35 33 27 26 27 27 28 27 30 37 40 42 43 44 45 46 46 45 41 41 42 44 44 44 44 46 49 51 53 56 58 61 64 68 71 74 76
47 43 41 37 36 31 33 35 36 29 27 31 27 30 26 27 29 33 35 34 35 37 37 37 38 41 41 41 44 46 47 47 48 51 53 55 58 61 63 67 70 72 76 79
47 44 40 38 38 30 37 33 37 28 29 30 29 25 24 28 29 27 28 28 31 33 33 36 39 41 43 45 46 48 49 49 49 50 51 52 55 60 64 68 71 75 79 83
47 44 41 40 38 34 36 36 36 31 32 29 27 31 29 27 29 31 31 32 33 35 38 38 37 37 41 43 44 45 46 47 49 51 53 56 60 64 67 71 75 79 82 85
48 47 44 43 38 32 44 40 37 33 35 31 30 30 31 29 29 33 36 36 36 37 37 38 38 40 40 41 43 45 48 50 52 55 58 61 64 67 71 73 77 79 82 85
48 48 45 45 39 36 44 38 44 36 40 36 35 34 35 33 29 33 35 38 40 41 40 40 40 41 43 45 46 48 50 52 55 57 60 63 66 69 72 75 77 79 79 81
52 51 50 47 41 36 47 42 41 40 36 40 38 39 39 37 35 34 38 39 40 42 42 42 42 43 43 45 48 50 52 55 57 60 62 65 68 71 73 74 76 79 82 86
55 54 52 47 42 43 43 44 41 40 44 41 40 45 44 38 38 37 37 39 42 43 43 43 43 44 44 46 48 50 53 56 60 60 63 67 70 73 75 78 81 85 89 93
59 57 50 49 45 48 47 47 45 46 42 42 45 46 46 46 44 38 37 39 43 46 47 46 45 46 47 48 49 53 57 60 63 67 71 76 79 83 86 88 89 92 95 98
59 55 50 49 49 52 52 50 49 45 43 44 45 48 50 50 52 44 41 41 42 44 46 47 49 51 52 53 57 61 66 70 73 76 78 81 83 86 88 90 92 95 98 101
56 53 52 52 55 57 53 52 48 46 47 47 48 51 53 54 54 51 48 47 46 45 47 48 52 57 58 60 62 63 65 72 75 78 81 83 84 86 88 91 94 99 100 100

GFSCGP_250_spd_057.txt.gz
Wind_Speed
35 32 37 36 37 41 43 46 40 26 21 15 9 10 12 21 17 18 13 15 7 16 18 20 20 18 25 26 21 26 33 37 31 31 44 47 57 61 66 48 47 66 54 64
35 34 36 35 36 40 40 42 38 24 20 18 13 12 14 11 16 23 21 21 13 4 16 15 19 20 17 18 18 21 28 33 35 35 36 39 41 50 58 62 55 54 50 51
36 35 35 35 36 39 39 39 39 22 20 17 17 14 14 9 14 20 21 20 25 21 16 11 17 21 28 27 26 25 27 29 26 31 38 43 40 42 47 49 50 50 53 56
36 34 34 35 36 37 37 36 37 25 17 18 14 14 13 13 16 19 21 24 26 28 29 29 31 29 28 25 24 25 32 30 27 27 29 30 33 41 46 49 51 48 49 52
36 34 34 36 35 37 34 36 35 29 15 17 18 14 18 17 17 18 25 24 29 31 33 31 33 29 29 30 28 30 27 30 34 34 32 35 39 41 42 44 46 50 51 50
36 34 34 36 36 36 33 32 30 35 16 17 19 16 16 16 15 17 17 17 17 18 31 36 33 33 33 33 34 35 38 37 35 39 40 38 37 40 42 43 46 48 50 54
36 35 34 36 37 35 31 30 31 34 24 14 17 19 18 17 17 19 22 21 20 20 23 27 29 34 35 35 37 37 38 39 40 33 32 35 37 41 44 47 50 50 51 52
44 36 35 36 36 35 30 27 28 32 28 17 18 20 19 22 20 19 20 26 25 24 24 23 25 26 28 29 30 29 29 30 32 34 36 38 43 44 45 47 50 51 50 48
48 40 36 36 37 36 31 26 27 28 25 21 19 19 20 25 26 26 25 26 26 26 27 28 28 28 29 29 29 32 34 36 38 39 39 37 43 46 47 50 50 50 50 52
52 44 37 36 39 38 34 27 27 28 25 24 19 21 23 25 29 30 29 28 27 25 25 27 28 30 30 31 32 34 35 38 39 40 41 43 47 48 47 49 48 49 52 53
51 46 38 37 40 38 35 27 27 27 26 24 21 21 20 24 26 30 31 33 32 31 29 28 28 30 34 34 34 33 35 38 41 42 43 45 45 47 46 47 51 51 54 57
47 49 40 41 41 41 36 30 29 26 30 26 19 24 19 20 25 32 33 34 37 37 35 33 32 31 30 31 31 34 36 38 40 44 45 46 46 44 44 44 51 55 59 62
55 46 45 44 41 42 37 32 32 28 31 28 23 25 18 17 22 31 34 35 35 38 41 39 37 37 36 36 37 39 41 41 42 43 45 43 42 44 50 52 53 55 58 60
55 53 48 47 45 44 39 35 31 28 30 27 26 26 24 22 21 26 32 34 36 39 43 42 41 42 42 44 44 46 45 44 44 45 44 45 48 51 52 53 55 57 59 62
54 57 55 53 46 45 42 37 32 29 32 29 31 26 24 20 24 23 26 34 37 38 40 43 43 45 46 49 50 49 47 46 46 45 46 48 50 51 51 53 56 59 61 66
63 60 58 55 50 46 44 40 33 29 31 30 29 27 24 26 22 25 27 32 38 41 44 46 48 50 49 48 48 46 46 45 45 43 45 49 51 54 56 57 59 61 64 67
63 59 60 55 53 47 41 44 35 33 32 30 31 27 25 25 26 28 30 29 30 35 41 44 46 47 47 41 39 39 39 44 46 47 49 50 49 50 51 53 55 59 61 65
59 59 59 57 52 45 44 43 39 35 33 34 34 27 25 24 27 28 26 29 31 32 34 36 37 38 39 39 38 38 40 41 43 45 46 46 47 50 52 54 57 61 65 69
59 59 57 54 51 45 44 45 43 37 35 37 36 26 29 27 30 32 28 29 31 35 37 38 39 39 40 40 41 42 42 42 43 44 46 48 50 53 55 58 61 65 69 72
63 61 58 53 50 41 47 50 47 41 36 44 31 31 32 30 32 34 34 28 31 32 37 40 42 43 43 42 43 44 44 45 46 47 48 51 53 55 57 61 65 67 70 72
63 59 54 50 46 44 51 53 49 42 49 42 33 34 33 32 33 36 36 32 35 35 37 39 42 44 46 47 47 47 47 47 48 49 50 51 52 54 57 61 65 70 75 79
61 59 53 52 50 45 53 57 46 48 47 43 38 35 38 34 38 35 38 37 37 37 38 38 40 42 44 47 50 51 52 52 51 49 49 52 56 60 64 68 73 77 81 85
64 58 55 54 49 50 54 56 51 50 47 43 43 40 41 39 40 40 45 45 44 41 41 38 38 39 41 43 44 47 48 48 51 54 55 59 62 63 65 74 79 83 86 89
69 63 58 55 51 51 53 57 54 54 50 45 44 43 45 43 41 43 48 52 53 50 50 48 46 46 46 46 46 47 49 51 53 56 60 61 66 71 73 78 83 89 91 90
65 65 59 54 53 56 55 61 63 55 51 50 50 48 49 48 46 46 49 55 57 58 57 55 52 52 50 51 53 55 58 59 62 65 66 69 71 72 76 82 85 87 90 92
65 63 63 60 61 62 60 63 62 60 56 54 55 52 51 50 49 51 54 58 61 62 63 62 59 61 58 60 62 62 64 66 66 67 68 68 72 77 83 88 91 91 93 99

GFSCGP_250_spd_060.txt.gz
Wind_Speed
44 35 32 34 32 38 37 41 41 42 42 19 18 21 14 12 11 22 26 17 28 36 33 23 25 24 29 33 38 40 46 53 61 65 65 66 70 72 78 73 74 72 74 72
41 34 33 33 33 36 36 42 41 38 41 31 16 21 19 16 28 32 26 18 17 7 13 24 23 24 27 29 32 32 38 44 49 52 64 62 58 63 67 61 61 63 57 56
39 37 38 33 33 34 38 39 38 35 37 34 18 19 21 19 17 20 28 20 17 8 12 14 15 17 13 15 23 24 21 20 31 40 42 42 37 42 45 49 49 46 55 62
42 43 32 33 31 32 39 37 38 32 38 38 24 15 19 17 16 19 18 24 20 20 18 17 15 23 23 25 24 23 23 23 24 28 31 30 36 44 45 43 45 49 53 51
45 43 35 35 30 32 39 36 37 34 35 39 29 17 18 20 21 20 23 23 22 28 25 27 25 22 24 25 29 34 31 30 33 34 29 28 32 34 35 38 42 46 47 49
53 46 34 37 33 33 37 37 37 35 32 39 30 22 18 22 21 20 21 25 30 28 31 34 36 32 30 33 31 31 30 33 33 33 35 35 36 39 40 42 41 46 50 51
46 46 40 34 34 33 34 38 35 35 31 34 33 27 16 21 24 17 18 19 19 17 25 32 37 40 41 38 39 35 35 34 37 36 38 41 44 42 39 39 40 46 49 52
46 40 37 39 40 38 33 38 32 35 33 33 35 32 21 20 23 22 24 23 26 25 25 26 27 30 33 34 37 41 40 38 39 38 36 36 38 39 38 43 38 39 39 48
46 40 37 35 44 41 35 39 34 35 33 30 33 35 30 24 21 26 26 26 25 31 32 30 30 29 30 30 31 32 31 31 30 32 33 35 37 40 42 44 48 51 51 54
56 47 44 40 43 43 33 39 35 34 35 27 30 34 27 23 23 25 24 30 31 31 33 33 32 31 31 31 32 33 34 35 36 36 37 37 22 45 43 45 50 46 52 54
63 50 47 47 41 47 37 39 37 35 36 29 31 33 34 28 21 29 23 27 31 34 35 35 35 32 31 32 35 37 36 37 37 36 35 36 39 42 37 44 50 53 57 62
60 56 50 41 37 41 39 39 39 37 37 32 29 32 27 25 26 26 29 30 31 32 32 38 39 38 35 34 31 32 34 31 30 30 33 35 36 39 42 46 53 57 58 57
58 55 58 44 39 34 38 41 38 39 39 34 29 34 27 29 26 21 29 32 31 31 32 33 36 40 41 39 38 35 38 35 32 35 39 40 38 45 50 54 57 57 57 57
64 55 58 45 44 46 42 39 40 41 38 38 31 31 31 28 25 26 21 28 34 35 33 33 32 32 37 42 42 41 41 41 44 43 45 41 43 50 55 56 54 54 56 57
66 55 56 58 46 46 45 45 41 42 43 39 35 30 31 31 26 23 25 25 32 34 37 37 35 34 35 38 41 43 43 43 43 41 44 44 49 52 51 51 52 55 56 57
68 58 63 60 47 44 53 50 44 45 46 41 36 33 32 32 27 21 21 27 27 30 34 38 38 38 43 41 46 43 42 43 45 46 42 46 47 50 51 53 52 51 50 50
71 63 67 55 49 47 50 48 50 46 48 43 37 37 35 31 30 26 27 23 26 26 30 32 34 27 31 33 37 38 39 39 40 42 45 45 47 47 48 48 48 50 51 53
74 66 69 63 57 43 44 48 52 48 49 44 39 38 36 31 35 28 28 26 27 27 27 26 28 29 29 38 39 44 43 42 42 44 47 48 49 50 51 52 53 56 57 58
75 68 67 70 62 49 47 53 54 52 52 47 43 40 38 34 36 33 32 30 28 28 25 28 29 30 32 36 38 41 44 45 46 47 48 49 50 52 54 55 56 56 58 59
74 69 66 70 61 53 49 58 53 55 46 52 48 42 38 38 39 37 34 34 30 30 31 33 33 34 35 35 36 37 40 42 44 47 49 52 54 55 57 58 59 58 59 63
74 70 65 64 61 53 51 57 58 51 55 54 50 45 41 42 41 39 37 38 36 34 36 36 38 42 41 40 43 42 42 44 45 46 46 48 49 49 52 56 59 60 64 67
72 70 65 64 64 52 52 59 57 56 62 54 51 46 42 42 44 42 40 39 40 39 45 51 51 51 49 48 49 49 47 46 47 48 51 51 53 56 57 60 63 65 67 67
70 63 65 67 62 61 57 61 61 61 56 57 55 51 48 45 48 48 45 43 43 42 43 50 54 56 58 57 54 56 55 54 53 55 55 58 59 61 61 65 65 68 71 71
68 67 65 65 63 59 60 61 66 62 59 59 55 51 51 50 52 50 48 47 46 47 47 49 55 56 58 61 63 61 59 64 65 66 67 66 64 65 65 66 71 75 77 77
69 68 63 62 62 63 62 64 67 65 59 57 57 52 56 55 56 53 54 54 52 50 52 54 57 59 62 64 65 67 69 71 70 69 73 70 70 72 75 75 77 79 79 81
65 63 60 61 63 66 65 66 64 63 62 61 59 57 59 60 59 61 60 58 55 54 57 59 59 64 67 66 68 69 73 69 75 79 75 76 78 80 77 79 82 88 87 85

GFSCGP_250_spd_063.txt.gz
Wind_Speed
41 38 43 41 40 34 25 31 35 37 39 36 37 35 19 22 29 27 29 18 23 24 32 28 30 25 21 28 34 39 44 52 60 69 74 68 73 70 72 68 66 66 66 66
42 44 39 42 41 36 25 27 35 33 35 37 37 35 22 15 16 23 24 27 26 18 22 32 36 31 25 28 36 41 43 45 48 52 68 70 74 74 70 69 71 73 72 73
50 46 39 37 37 41 34 26 35 37 33 37 39 41 29 15 12 23 29 30 23 20 9 12 14 23 27 26 27 31 38 44 51 57 65 65 71 73 73 70 65 61 64 67
43 48 38 36 38 39 41 26 33 36 33 37 36 39 36 24 15 13 19 23 22 18 15 13 14 14 17 16 13 23 29 35 39 45 49 54 56 56 55 52 46 48 51 52
47 45 41 37 44 41 35 26 28 36 34 33 35 33 39 25 17 18 16 19 13 24 20 19 23 20 18 22 21 23 21 24 24 24 26 31 36 41 40 42 45 50 51 46
51 51 44 38 38 39 30 27 24 33 37 30 35 33 37 33 23 13 13 20 23 18 25 30 27 26 25 26 27 26 26 30 32 31 32 35 42 40 35 37 39 41 44 46
57 53 45 42 39 42 36 29 29 29 35 32 34 31 32 32 26 13 15 10 26 29 27 36 36 34 34 31 32 35 34 33 31 31 39 38 36 37 38 40 43 45 48 49
59 54 51 46 41 38 39 37 32 29 35 37 32 32 28 34 34 22 17 16 19 24 24 22 31 26 38 42 40 41 38 37 38 39 38 37 39 41 40 43 45 46 44 48
64 56 55 46 36 34 40 32 34 31 34 37 29 31 30 30 32 29 21 17 21 27 30 28 27 28 30 34 32 30 32 35 33 35 40 41 40 40 43 42 39 38 43 50
67 62 55 51 42 33 42 47 34 29 31 36 32 29 36 30 30 31 25 23 22 22 28 28 29 34 34 31 30 32 32 34 32 27 28 29 30 29 30 29 35 33 24 37
69 65 61 57 49 41 43 48 41 36 32 35 38 27 31 27 29 31 29 27 26 30 28 25 30 30 30 27 26 26 21 18 24 25 30 28 26 25 22 25 28 31 47 50
73 70 66 59 56 48 46 48 48 39 40 30 39 29 32 31 28 30 33 27 31 32 30 32 28 25 28 29 28 23 8 13 24 25 26 21 17 39 22 33 38 43 51 60
76 74 71 65 60 53 49 53 51 49 39 27 34 35 28 32 26 26 31 29 30 32 31 30 35 33 26 26 25 21 9 26 15 11 25 30 37 41 41 46 50 56 62 65
81 77 69 66 62 59 53 54 46 44 36 32 31 39 33 34 27 26 29 27 28 28 27 28 29 32 31 26 26 28 27 31 35 34 41 45 42 50 55 59 62 66 68 72
85 78 72 66 65 65 60 55 51 43 36 33 34 38 39 36 31 26 25 29 26 25 27 26 29 27 22 24 29 32 35 36 42 52 55 57 56 57 61 65 66 65 68 70
88 79 78 71 67 64 62 57 53 44 42 37 39 38 44 40 35 29 26 29 28 27 21 22 22 27 29 21 20 27 37 44 48 53 58 60 61 63 60 66 68 64 63 65
94 89 85 76 68 66 62 55 54 42 44 40 45 45 45 41 38 32 30 28 29 28 28 21 19 16 25 27 25 26 27 30 33 38 42 44 47 50 53 54 55 56 58 60
99 92 87 82 70 72 54 54 56 52 41 42 47 46 45 42 42 35 34 32 30 33 28 27 19 16 21 28 31 32 35 39 44 46 46 46 47 48 50 52 53 55 56 59
102 94 88 81 75 65 57 53 58 55 42 40 46 47 46 44 44 39 37 38 35 36 36 30 26 24 17 19 27 28 30 33 33 34 36 40 44 48 50 52 53 54 56 58
92 95 89 83 79 71 60 57 61 59 40 41 49 53 50 47 45 46 42 43 38 38 39 37 35 32 30 33 32 30 32 35 38 38 38 39 41 43 45 47 48 50 56 59
91 94 82 85 78 71 63 61 64 61 47 54 51 52 53 49 47 48 46 46 42 41 41 40 39 37 36 39 44 48 49 48 48 47 45 45 48 50 52 52 52 54 58 58
91 94 79 75 76 71 67 66 65 57 61 64 57 52 54 52 48 51 51 49 47 46 43 43 42 41 41 42 45 49 52 54 54 56 55 53 54 55 57 59 61 64 61 64
80 80 75 65 68 73 67 64 64 65 63 63 61 52 55 56 53 50 56 57 54 51 47 46 48 47 47 48 51 51 54 57 58 60 59 62 63 63 64 64 64 69 70 72
71 73 67 66 66 66 65 65 65 64 64 61 60 55 57 58 57 52 55 57 54 55 52 48 51 54 52 52 54 56 58 58 60 64 66 66 66 69 69 70 71 74 75 76
66 73 68 62 62 66 63 62 64 65 70 66 60 56 57 57 58 56 59 56 53 54 57 57 58 59 58 59 60 59 59 62 62 66 70 72 71 72 74 75 77 80 80 82
66 64 62 63 70 68 66 66 63 66 72 76 68 64 60 60 62 61 59 59 57 59 59 63 65 65 62 63 65 65 66 67 71 73 74 77 77 77 80 83 84 85 85 85

GFSCGP_250_spd_069.txt.gz
Wind_Speed
35 30 37 33 28 31 31 31 33 32 35 33 37 30 31 33 40 37 30 22 26 35 40 35 27 16 22 39 54 57 68 77 83 87 82 81 82 78 76 74 72 72 68 75
40 37 39 30 29 32 32 32 31 31 33 33 32 39 32 32 35 37 33 25 23 27 35 28 19 16 16 28 41 56 60 75 82 82 82 81 81 81 77 81 78 78 77 76
47 46 42 28 30 34 34 34 33 35 33 34 31 38 31 33 33 37 34 28 20 22 23 22 21 19 16 26 27 35 51 74 76 86 80 79 75 78 77 79 80 83 77 85
48 49 40 32 34 35 36 34 36 39 35 37 31 39 34 32 35 35 36 31 22 20 21 13 16 11 14 21 27 28 33 46 61 78 75 79 77 83 74 77 83 87 75 78
48 51 46 38 39 34 42 37 37 41 41 36 34 32 35 30 34 33 34 30 22 20 20 13 15 15 12 11 16 22 24 32 34 41 47 50 54 62 57 54 56 59 58 66
53 54 49 46 46 42 45 43 43 43 41 41 35 31 34 29 33 34 31 27 24 17 20 16 17 17 15 14 15 22 23 25 27 34 31 35 37 35 36 38 40 41 44 44
56 56 58 54 51 44 41 43 42 40 41 44 37 31 34 30 30 35 29 26 24 21 15 16 18 15 20 20 19 19 22 22 20 19 18 20 23 25 27 27 31 32 32 34
60 59 62 60 55 51 50 48 41 43 48 45 39 32 25 26 30 34 29 26 25 28 24 17 21 23 24 24 27 27 21 23 24 25 28 28 28 28 29 30 32 36 39 40
69 66 69 66 62 56 50 43 50 50 44 46 38 29 28 31 30 30 31 29 27 25 25 20 14 20 22 22 22 21 24 29 25 27 26 27 30 30 32 33 31 28 29 31
68 69 72 72 65 59 54 54 52 52 45 43 40 34 33 29 28 29 29 28 28 27 26 21 16 16 16 22 24 23 26 26 29 31 30 29 25 24 25 26 27 28 31 30
79 74 71 72 64 62 61 58 54 52 48 43 42 38 32 25 28 29 29 27 26 27 28 27 22 14 14 19 23 24 26 24 25 26 25 23 23 23 20 20 24 29 22 24
82 79 73 72 72 68 66 62 60 55 53 44 43 40 36 33 32 29 31 29 26 23 25 27 28 20 16 13 21 25 26 30 29 29 28 29 28 26 24 25 24 28 29 36
86 82 76 75 77 74 69 65 58 56 54 43 44 41 43 38 36 32 30 32 27 24 21 24 28 27 22 18 14 23 27 32 34 33 33 32 32 26 24 22 27 36 38 38
88 83 82 77 79 77 72 69 61 59 55 48 45 46 49 38 40 36 32 35 32 26 21 21 24 28 28 23 18 15 27 32 34 38 40 38 35 29 30 32 44 47 48 48
84 79 74 72 77 78 71 69 68 65 62 56 51 48 49 44 41 38 31 37 35 29 24 21 24 24 27 27 23 18 16 29 34 37 42 44 43 37 40 43 46 53 52 58
85 79 77 76 74 75 74 68 67 67 63 55 50 50 52 49 48 41 35 39 38 31 29 25 26 25 24 25 27 23 20 21 23 36 38 43 46 49 50 54 55 55 59 60
82 80 80 80 81 83 80 61 67 62 59 58 54 53 58 54 51 41 39 42 37 35 32 31 31 29 26 26 23 25 23 23 26 29 34 38 43 48 54 56 60 57 63 65
80 83 81 78 85 87 72 78 73 70 66 63 60 57 59 56 51 47 42 46 46 46 37 34 36 37 33 29 28 26 25 23 26 28 30 34 38 43 50 50 52 56 58 60
74 78 82 79 81 82 77 78 82 80 70 68 64 62 61 57 54 52 49 43 52 51 42 39 35 39 40 35 33 33 34 29 27 27 29 32 35 37 38 42 43 44 45 48
71 72 73 74 80 79 68 74 81 84 76 73 72 69 61 61 56 49 50 44 50 54 54 47 44 39 37 40 40 38 38 38 36 37 36 38 38 39 40 40 42 44 46 49
70 70 72 74 77 63 72 76 77 80 68 81 80 72 67 62 56 57 57 54 51 57 58 48 46 47 47 45 43 44 43 42 44 44 45 45 44 45 46 46 47 49 51 53
68 69 71 73 70 69 68 70 74 78 76 76 79 77 73 66 67 64 59 55 54 56 59 59 46 48 50 49 47 46 47 45 49 49 50 52 53 55 56 55 55 56 58 60
67 70 72 72 71 75 73 67 62 75 77 80 78 72 70 68 67 63 58 57 59 57 60 61 56 52 53 51 51 51 54 53 54 55 56 57 58 60 61 59 59 61 63 64
63 67 69 72 68 74 72 70 70 76 74 75 79 78 74 71 68 63 62 62 62 58 60 60 57 58 55 53 55 59 59 60 61 59 60 62 61 64 65 64 66 67 69 70
61 66 64 66 68 69 75 74 77 77 71 69 67 70 72 74 73 73 68 65 66 64 60 64 61 60 60 60 62 62 63 61 62 63 66 66 67 68 69 70 72 74 76 76
58 60 60 61 66 66 72 73 77 74 73 69 64 63 62 62 70 72 74 73 68 65 64 64 68 66 64 64 65 68 67 66 67 70 70 70 69 70 72 75 77 80 82 81

GFSCGP_250_spd_072.txt.gz
Wind_Speed
39 33 42 41 35 32 31 29 28 23 24 23 31 33 34 33 37 36 32 40 41 38 25 18 17 20 26 26 41 44 59 69 76 69 69 65 66 66 64 59 62 64 60 68
39 34 52 43 38 34 34 29 25 22 22 22 31 35 36 35 32 38 31 38 41 40 29 21 18 14 17 22 30 45 52 58 71 72 72 74 72 71 74 70 70 70 72 66
46 46 50 45 40 40 40 34 29 22 21 24 29 34 34 35 31 36 30 34 37 37 29 19 24 17 19 20 24 36 38 48 64 71 69 74 77 74 80 82 80 78 77 78
42 46 52 49 47 44 43 39 28 25 25 27 28 34 36 35 33 31 33 31 36 35 29 18 18 15 18 16 18 25 34 43 52 68 72 70 76 74 78 87 85 82 81 75
45 53 49 45 50 46 45 43 34 31 28 27 33 31 35 36 32 27 33 29 34 33 29 19 15 17 15 13 12 19 27 32 45 59 70 69 70 66 64 72 82 83 81 83
51 55 50 45 52 48 49 46 40 34 30 26 33 28 36 41 37 24 30 28 29 30 30 24 15 17 19 19 16 18 21 25 29 36 41 49 55 48 52 53 60 62 59 56
54 55 52 51 52 51 51 51 47 38 35 32 34 29 38 38 39 26 27 29 26 29 27 23 19 13 21 23 21 21 20 24 24 26 27 29 31 33 39 43 47 53 53 46
53 54 54 55 57 57 57 53 47 43 40 35 29 31 39 33 37 29 25 27 27 25 29 26 22 17 17 21 24 26 26 24 25 22 21 21 20 24 26 27 28 33 36 37
60 60 57 54 58 58 55 54 53 47 39 34 29 34 41 39 37 30 24 26 28 28 28 28 23 21 18 21 25 29 30 28 29 30 29 26 29 30 30 31 33 36 40 43
57 57 61 64 64 63 60 59 56 49 41 39 34 37 43 38 36 33 27 28 28 30 30 30 24 22 21 19 23 28 27 25 26 30 30 33 31 31 33 31 29 29 30 33
68 67 67 67 65 65 63 63 60 54 47 38 41 39 45 40 38 36 28 28 32 32 31 31 27 24 21 22 18 23 29 25 27 30 33 36 38 38 37 38 36 32 29 24
74 68 68 71 71 71 70 65 62 56 50 45 43 41 46 41 40 39 34 34 31 35 31 32 30 26 20 20 25 21 22 29 30 32 34 35 37 38 37 39 40 37 35 34
78 76 75 74 73 74 73 72 70 64 58 50 46 42 52 46 43 40 41 36 34 35 34 32 31 29 27 20 21 22 22 24 32 33 37 37 39 38 38 37 36 40 37 42
84 85 82 79 75 76 71 67 64 64 60 54 46 50 52 54 45 44 41 37 35 35 37 35 32 27 28 27 23 21 19 19 27 35 38 40 37 37 37 37 39 42 42 44
88 84 84 88 85 83 80 75 75 68 64 64 57 56 54 58 52 44 44 38 39 35 38 37 34 30 29 28 27 26 24 19 18 28 41 44 41 37 36 39 39 40 44 44
92 91 89 88 88 86 85 78 82 76 69 61 58 53 52 59 57 49 46 44 40 40 40 41 41 35 32 30 30 31 27 26 23 19 19 36 44 43 42 42 46 45 48 49
90 88 87 82 85 85 77 82 80 72 65 59 55 58 57 57 60 54 51 47 44 42 42 45 44 43 40 33 31 32 31 29 28 28 26 21 22 32 41 44 46 50 51 52
86 90 92 88 89 89 79 83 82 78 68 63 57 56 58 59 62 59 57 53 48 44 48 48 50 46 42 39 38 36 35 32 31 30 30 30 28 28 31 34 38 42 43 43
79 80 80 79 82 77 75 80 83 83 72 70 67 64 58 60 62 61 60 56 53 48 51 51 47 52 53 49 45 40 42 38 35 35 35 33 34 33 33 34 36 38 41 43
72 72 74 73 74 73 73 81 82 79 66 77 71 68 66 63 59 63 68 61 60 55 54 55 54 49 52 56 54 45 40 42 43 41 40 40 41 41 42 43 43 45 47 49
71 70 70 70 73 66 68 76 79 74 68 76 75 70 69 68 66 69 71 66 64 57 58 54 52 49 50 55 59 60 55 52 49 45 45 46 46 48 48 50 51 52 54 55
70 70 69 70 69 65 70 70 73 72 72 75 75 71 69 71 73 73 71 70 68 63 62 58 55 56 55 56 61 63 63 60 60 55 54 52 50 50 52 53 55 56 58 60
65 68 70 68 69 69 68 70 71 72 69 71 72 73 73 71 73 73 72 72 71 68 63 64 62 62 58 59 62 67 68 67 59 61 60 58 56 57 59 62 63 62 62 64
64 66 64 63 65 66 66 70 74 75 70 67 65 70 76 73 70 71 71 73 72 70 72 70 67 60 59 62 64 69 70 70 70 67 62 63 65 66 66 65 66 66 66 66
61 62 63 59 64 61 65 68 72 73 70 62 67 72 74 74 74 74 71 70 70 70 71 71 67 64 65 65 62 67 71 72 70 69 69 67 68 70 71 71 71 72 72 74
55 54 55 54 57 60 66 66 66 72 72 70 67 73 76 76 77 73 71 74 74 73 71 72 70 69 69 68 69 68 71 74 73 71 72 74 76 77 78 78 77 78 77 77

GFSCGP_250_spd_075.txt.gz
Wind_Speed
49 44 40 55 43 32 30 31 33 28 20 20 22 22 21 23 30 31 35 34 38 38 38 34 25 16 20 30 32 32 34 42 64 62 61 63 59 53 55 55 52 40 57 57
46 44 53 54 46 33 32 35 34 30 21 20 21 24 24 24 27 30 32 32 37 37 39 38 31 19 16 23 28 28 32 29 38 66 67 69 62 57 58 58 56 58 54 48
48 50 52 52 48 37 35 39 36 30 26 26 22 26 24 26 25 26 34 31 34 34 36 37 35 26 18 15 17 19 23 26 33 40 68 76 75 66 59 62 65 64 65 64
48 48 51 52 51 40 38 45 37 33 28 25 22 26 26 25 26 28 31 30 32 33 33 37 35 29 18 14 15 19 23 26 31 37 43 56 69 71 66 59 63 68 72 65
52 55 52 48 52 46 43 40 39 37 32 30 30 20 29 26 27 30 26 29 30 29 29 34 34 31 20 15 14 11 18 24 26 30 35 40 54 59 61 67 67 66 67 75
53 54 52 51 53 50 44 40 43 41 35 28 31 23 34 27 27 28 26 28 27 24 26 28 30 31 25 16 17 13 14 14 20 27 29 36 42 41 49 53 55 59 56 60
57 55 56 56 55 51 47 42 41 43 37 33 33 27 31 29 28 28 28 26 28 22 26 24 27 28 25 20 20 21 18 15 15 18 21 22 25 30 34 34 38 37 39 36
59 57 58 58 58 58 55 53 46 42 39 36 35 30 31 32 27 30 29 30 29 23 28 25 23 26 26 21 18 22 23 21 17 20 22 21 22 25 29 30 32 34 34 35
55 57 58 57 60 60 58 50 51 46 41 36 34 33 32 38 27 34 33 31 30 25 23 30 27 24 29 25 19 18 20 24 25 25 25 26 26 27 30 32 32 32 33 37
56 50 50 53 54 54 52 52 51 44 40 41 38 36 39 42 35 37 36 32 33 26 28 26 32 25 26 26 21 19 17 18 24 26 28 34 34 31 33 34 36 38 39 42
58 55 54 52 50 52 53 52 51 49 45 45 44 40 45 49 40 37 38 34 35 33 31 28 29 31 26 25 22 21 19 18 20 26 26 30 37 41 45 40 38 39 40 41
57 55 55 57 58 56 52 54 54 51 49 48 47 45 46 51 45 40 38 38 36 38 35 31 30 31 31 27 22 19 18 19 19 25 31 32 34 37 40 41 43 40 40 37
66 64 65 65 61 58 59 60 58 56 56 54 54 53 48 51 53 48 43 45 43 40 39 36 34 33 34 33 27 19 19 20 18 20 28 35 37 36 36 37 38 37 37 38
73 73 72 71 74 74 68 69 68 64 59 57 54 55 56 54 55 53 47 46 48 42 43 41 38 35 32 34 31 25 19 19 21 18 20 24 35 39 41 40 38 39 40 38
82 79 74 73 72 71 73 73 69 67 62 56 56 56 55 55 58 58 52 47 47 46 46 46 43 38 35 38 36 32 25 25 22 22 21 22 20 26 32 36 35 37 41 44
75 75 76 75 74 77 78 78 80 79 75 70 69 63 60 60 59 59 55 51 45 50 48 52 47 42 41 43 41 41 35 32 30 27 27 23 21 19 23 32 34 33 35 42
86 86 86 83 84 83 81 85 85 85 81 76 75 69 65 63 60 58 58 60 54 51 54 52 52 49 46 45 43 44 44 39 35 35 32 31 29 25 22 19 19 23 29 29
91 91 92 91 94 91 84 89 86 86 83 83 80 74 66 63 61 57 56 58 58 52 53 56 54 55 53 48 45 45 46 43 44 41 42 37 34 34 32 29 27 26 27 28
87 92 93 94 95 90 89 92 94 90 89 86 79 75 72 68 62 56 60 66 63 64 56 58 57 57 57 54 50 48 45 48 49 47 46 44 41 39 39 39 37 37 38 38
80 84 87 89 92 90 89 92 93 94 83 87 86 83 80 74 69 64 65 64 65 68 62 59 60 57 59 58 56 53 51 49 49 51 51 51 47 45 47 47 46 46 46 48
75 78 79 80 77 77 78 82 87 90 86 84 87 85 81 76 70 70 70 70 67 66 66 64 61 61 59 61 59 59 57 54 53 51 51 53 51 49 50 50 50 52 53 54
71 71 71 71 72 71 70 72 79 79 77 76 78 79 76 73 71 71 74 74 72 70 67 66 67 66 65 65 65 62 61 56 56 52 52 57 59 61 63 64 60 61 59 59
65 66 68 67 70 70 71 69 73 74 74 72 73 76 77 75 74 73 74 75 75 74 73 69 67 70 71 70 65 63 65 63 60 59 58 59 63 63 65 66 68 66 68 68
61 63 64 66 69 71 69 68 68 72 72 73 70 72 73 76 76 75 77 76 75 75 76 74 72 73 72 70 70 70 66 66 64 64 65 63 64 69 71 72 73 75 75 75
57 57 59 61 65 66 67 65 65 69 70 72 73 70 70 72 74 76 78 79 78 76 76 77 77 76 73 73 75 72 70 68 68 68 69 71 69 70 72 74 77 78 78 78
54 54 56 59 62 65 66 62 61 63 67 70 74 73 70 71 73 73 77 79 80 79 78 76 77 79 78 77 75 76 73 72 72 74 74 75 73 73 74 74 77 79 81 83

GFSCGP_250_spd_078.txt.gz
Wind_Speed
58 54 46 57 53 49 43 39 39 37 27 27 29 33 34 31 30 29 24 26 20 24 28 26 26 28 17 18 23 32 36 34 35 46 47 45 55 57 38 55 46 56 58 55
54 46 54 58 50 48 45 44 45 38 28 26 28 35 34 31 30 27 24 28 20 24 26 25 26 29 23 20 20 23 31 32 32 34 56 49 53 58 56 39 47 50 48 43
53 51 57 53 51 50 45 42 48 40 26 27 30 37 34 27 28 25 25 25 25 22 25 24 25 29 28 20 15 20 19 22 22 29 45 59 56 56 62 56 48 54 57 55
54 52 58 56 51 51 49 49 49 41 30 30 32 36 34 27 28 25 24 24 26 25 22 23 23 28 28 24 14 13 14 18 19 21 30 47 62 63 61 69 63 54 55 61
52 54 55 56 54 56 53 52 48 39 29 33 39 33 38 33 28 26 26 24 24 26 24 23 21 24 27 28 19 9 8 16 21 22 23 27 38 58 61 65 65 63 62 57
53 56 57 56 58 54 54 50 42 40 34 36 46 34 41 37 29 28 28 21 26 28 26 21 22 19 24 28 25 16 11 10 14 24 24 25 34 36 43 51 59 62 62 60
54 58 57 57 55 52 51 54 52 48 40 37 49 37 40 40 34 30 29 23 26 26 28 21 25 21 20 24 26 22 15 16 16 16 18 23 27 30 34 39 41 42 46 47
49 55 56 58 60 56 52 50 53 51 47 43 39 38 38 45 38 36 30 26 27 28 28 21 23 24 22 18 23 19 19 15 20 20 18 19 17 23 28 32 34 36 39 42
61 58 57 58 60 59 55 53 55 54 50 50 42 41 40 46 40 38 34 31 29 27 29 27 25 23 25 20 17 20 17 17 18 25 26 22 23 24 23 27 30 33 34 34
57 59 56 57 59 58 58 58 55 51 49 48 45 44 42 47 45 41 40 36 35 32 25 31 30 29 25 23 19 18 20 18 17 18 27 31 27 28 29 29 30 31 33 34
59 54 52 55 57 61 60 57 54 52 50 53 51 49 46 50 48 45 44 41 40 35 32 31 32 33 28 25 25 21 20 18 16 19 18 27 33 36 37 35 33 35 40 39
59 59 61 59 58 62 58 57 53 53 53 54 48 43 40 48 49 47 45 48 46 41 37 39 35 36 34 31 27 28 25 21 18 18 18 18 24 31 37 41 40 40 43 42
64 65 63 61 60 54 53 57 58 58 54 54 51 46 46 47 49 53 53 53 53 45 47 41 39 36 37 37 32 28 30 25 22 18 21 19 18 20 30 35 40 40 40 40
61 67 70 65 61 59 56 53 54 51 52 52 52 48 49 50 52 57 57 57 53 51 50 44 40 40 39 38 37 34 33 29 26 24 22 23 21 21 21 25 34 39 40 40
66 65 67 64 59 58 55 51 48 50 57 53 54 51 53 54 56 61 61 59 56 54 51 49 44 44 40 40 43 42 36 33 31 30 28 27 27 24 23 24 23 29 36 43
78 74 77 76 73 70 69 66 66 64 62 59 59 60 61 58 59 61 62 59 57 53 56 55 47 46 46 43 43 45 41 36 34 34 35 32 32 31 30 28 27 23 25 34
88 85 84 81 83 77 69 73 76 76 76 76 73 67 66 64 63 63 62 59 60 60 61 62 56 50 51 50 50 46 45 42 39 38 38 38 38 37 38 37 34 33 30 26
85 85 88 86 86 83 79 78 79 79 81 81 81 78 75 75 74 73 71 69 65 66 63 66 61 50 55 58 56 55 49 47 44 45 43 41 39 42 40 40 42 42 38 37
95 92 89 89 87 83 84 84 84 86 89 88 87 82 81 80 79 80 80 77 75 70 66 64 63 51 51 59 60 57 56 52 48 50 50 46 40 41 44 45 46 49 49 45
90 92 97 96 93 90 85 89 88 87 89 86 84 84 83 84 88 86 83 79 78 73 68 62 60 57 58 60 59 59 60 56 57 56 55 51 49 47 48 48 48 50 52 51
83 84 86 91 92 91 92 99 95 92 96 94 94 94 93 92 90 87 86 81 76 72 70 66 65 60 61 63 65 66 65 59 62 58 58 57 53 53 52 50 51 52 56 55
76 77 81 86 87 89 91 91 93 96 97 98 98 98 95 92 92 91 90 87 82 79 78 75 71 71 69 71 67 66 65 64 62 62 62 64 62 59 56 54 51 53 57 62
71 75 76 76 78 79 80 81 84 89 93 95 98 98 97 95 93 88 85 86 87 86 84 81 76 75 75 74 71 69 68 67 67 67 67 68 67 64 63 64 63 60 59 64
68 69 69 72 74 74 73 73 76 78 80 82 83 84 83 82 82 82 80 77 79 82 81 79 77 74 74 77 77 74 72 72 72 71 71 71 71 70 68 69 69 69 69 68
64 65 67 68 71 71 69 70 72 73 75 76 76 76 77 78 78 77 76 73 74 77 78 79 80 79 79 82 80 79 77 75 74 74 75 74 75 75 74 75 76 74 74 74
61 62 63 65 66 67 66 66 69 69 70 72 73 73 73 73 75 75 75 73 72 73 74 78 80 80 81 81 77 78 81 82 82 80 79 78 78 77 75 75 78 81 81 81

GFSCGP_250_spd_081.txt.gz
Wind_Speed
55 58 48 46 49 56 54 52 50 46 45 46 43 40 35 32 31 23 24 30 30 26 23 25 26 19 22 26 23 22 23 24 28 36 33 39 30 30 44 53 39 54 52 48
60 48 50 48 53 55 55 55 50 48 47 45 41 40 38 33 29 23 20 25 27 25 20 23 26 20 20 24 21 17 18 21 23 29 36 40 39 33 45 44 50 47 49 48
58 48 49 53 56 57 54 52 51 49 46 43 42 40 40 37 29 25 21 22 23 24 24 26 27 22 19 22 22 16 16 18 16 24 30 32 44 38 36 46 46 47 50 53
45 50 50 52 53 54 54 53 53 47 47 43 44 40 43 41 30 26 22 24 23 21 22 25 24 23 20 19 22 20 13 14 20 20 26 30 44 43 41 46 45 46 50 47
39 53 53 51 52 53 51 55 52 48 47 42 41 41 49 42 32 28 27 26 25 23 20 21 19 23 21 18 19 21 14 12 13 16 25 29 41 47 47 50 51 52 55 52
46 48 53 50 52 50 56 58 51 49 50 46 44 46 49 48 34 31 30 29 28 25 23 23 24 21 21 21 18 19 19 13 10 11 18 22 32 41 50 50 51 54 58 58
54 47 47 49 52 50 55 54 53 52 47 48 48 48 45 49 42 37 33 33 31 27 25 24 20 20 22 21 21 19 17 17 14 14 14 19 25 33 39 49 53 56 56 59
51 54 53 51 51 52 52 52 54 55 54 56 49 46 46 50 50 42 40 34 33 30 29 24 21 21 25 24 21 20 18 17 19 16 17 16 18 25 33 38 44 52 59 60
50 56 59 59 55 58 52 52 52 53 50 54 53 51 49 44 50 46 46 41 36 31 29 28 25 22 27 27 23 21 19 18 16 18 16 19 22 22 23 30 35 39 41 44
50 51 55 56 53 58 54 56 55 50 51 53 52 52 56 51 48 47 48 44 39 37 33 32 33 26 25 26 26 24 22 20 18 17 17 18 19 25 26 28 28 26 29 33
50 48 49 51 46 54 60 58 56 48 51 51 52 54 56 54 50 48 47 48 47 40 35 36 36 33 30 31 28 28 25 22 20 21 19 20 18 17 26 29 31 30 29 28
56 51 50 53 55 53 58 55 56 58 58 55 55 56 56 56 55 52 53 53 48 41 36 39 39 38 38 38 32 29 29 26 24 20 21 19 19 18 16 20 29 36 39 38
54 62 57 54 65 59 57 58 53 54 58 59 58 56 57 56 55 54 53 51 48 41 39 39 38 42 44 42 38 29 32 31 26 23 22 24 20 18 20 18 17 28 32 44
55 60 66 60 61 59 59 57 57 62 64 62 61 61 61 60 57 59 55 54 50 45 44 42 42 47 45 45 41 36 33 30 31 32 28 25 26 24 23 21 20 19 21 33
61 59 63 71 67 61 56 60 59 61 64 62 60 57 58 57 58 58 54 55 52 47 44 47 50 51 50 50 47 43 44 36 36 36 37 34 27 28 29 28 25 23 22 22
74 70 68 68 65 66 66 64 60 65 64 63 64 62 63 60 53 57 58 55 52 52 53 55 55 54 50 46 48 49 44 42 40 39 42 38 37 35 32 33 32 29 30 29
73 74 73 75 73 73 71 74 71 68 65 65 63 61 58 60 56 56 56 54 51 53 58 59 59 58 56 55 56 54 53 52 41 44 45 41 42 43 39 38 39 34 35 35
78 75 73 77 75 73 70 72 67 60 61 62 62 60 56 55 54 55 53 57 61 63 66 64 61 55 55 55 57 61 59 57 51 47 49 49 45 46 45 42 43 41 39 41
83 81 73 74 79 78 76 75 76 77 81 74 72 71 69 67 70 69 66 66 66 69 71 71 70 68 66 67 66 66 61 61 54 58 52 53 52 50 48 48 51 48 46 43
87 87 84 82 80 79 85 80 79 84 88 82 80 80 79 80 82 83 80 79 81 81 82 81 80 78 77 76 75 71 68 61 54 53 54 55 53 53 55 52 49 52 52 52
89 88 89 90 89 86 88 89 90 89 93 87 86 87 86 87 87 87 87 88 87 86 85 85 85 83 84 84 80 78 71 62 59 58 58 57 57 58 58 56 54 56 55 56
95 90 90 91 89 90 93 95 96 98 98 97 94 92 88 88 90 91 93 93 93 92 90 88 88 89 89 90 84 75 69 65 62 64 64 65 65 63 63 61 57 58 58 60
93 99 100 97 95 95 97 96 96 96 96 97 98 97 98 99 96 97 96 95 96 97 96 96 96 93 93 88 86 84 80 73 73 69 71 72 72 72 70 67 64 61 62 65
87 88 92 96 100 102 104 104 103 104 103 104 104 101 98 98 98 98 99 101 102 101 101 100 99 96 94 93 92 90 86 84 80 76 76 78 76 76 75 75 72 70 71 72
80 83 87 89 94 90 91 90 91 91 90 91 90 88 88 89 91 92 92 91 90 90 90 89 88 86 86 86 85 85 83 82 83 82 79 78 78 76 74 74 76 77 78 77
74 74 74 76 76 80 80 79 82 82 83 83 82 82 82 82 83 84 84 84 84 83 83 83 82 81 81 78 77 78 79 79 80 79 80 79 79 80 79 80 80 77 76 78

GFSCGP_250_spd_084.txt.gz
Wind_Speed
98 82 55 54 53 52 52 52 51 50 47 31 30 45 43 40 44 41 36 32 28 26 25 30 25 28 30 29 25 26 23 22 27 39 45 44 41 38 29 35 39 43 56 55
67 42 51 53 53 52 52 48 48 47 43 35 36 46 44 44 45 40 33 32 27 24 22 25 25 27 28 29 23 24 23 18 20 29 43 42 44 41 30 38 41 43 58 52
54 53 54 52 53 54 49 48 43 42 46 41 41 37 44 47 44 39 31 30 29 26 22 23 22 25 25 28 24 23 22 15 16 20 38 43 43 44 32 39 43 43 47 60
51 56 55 53 53 52 48 41 45 50 52 44 42 38 41 48 44 40 30 31 29 29 23 23 24 21 26 25 25 22 20 17 12 12 24 38 38 49 43 40 47 47 45 51
50 50 55 58 52 50 47 48 48 48 52 49 40 38 45 49 46 41 29 32 27 29 28 24 23 24 23 23 26 22 20 17 15 12 13 26 35 40 52 46 47 54 51 51
45 49 51 54 56 55 50 53 51 50 54 42 38 39 44 49 49 42 32 35 30 29 29 27 24 23 23 21 26 27 21 16 15 13 14 20 28 38 48 49 49 52 52 52
41 42 46 49 50 55 54 55 50 50 51 40 44 42 38 50 50 45 36 37 36 32 28 28 27 24 24 22 25 28 25 20 15 13 13 14 24 32 41 54 56 59 56 55
42 31 32 39 50 49 48 47 47 48 48 46 44 38 46 45 47 48 41 38 40 38 33 29 30 25 27 26 25 23 25 23 21 14 12 11 14 22 35 47 57 65 62 58
48 43 38 43 53 53 51 47 47 49 46 49 49 43 39 46 48 49 47 43 43 39 36 33 33 29 28 29 25 23 24 26 24 23 14 12 13 14 19 34 51 60 65 65
54 45 39 47 53 46 46 50 51 46 47 44 47 48 52 52 50 49 48 43 41 43 42 40 38 36 30 31 29 30 27 27 24 23 23 18 12 12 13 23 26 42 53 59
56 44 40 53 47 44 50 46 48 46 48 45 47 48 51 52 56 56 52 48 42 42 42 41 41 38 31 32 27 29 31 32 26 26 25 25 19 14 11 11 23 29 33 37
59 48 45 49 54 54 55 52 52 52 52 48 49 53 51 54 57 54 52 49 48 44 43 47 44 41 35 36 32 31 33 32 30 32 28 24 24 21 16 16 14 14 30 36
66 56 46 48 50 51 54 54 53 59 55 56 53 50 50 55 57 52 52 49 51 52 48 46 45 43 43 41 35 33 35 35 34 31 31 24 27 29 26 22 20 18 15 13
68 66 53 51 51 55 56 50 51 57 63 57 56 57 54 54 56 54 55 55 54 53 52 50 48 47 44 41 40 35 39 37 39 38 38 30 32 31 31 29 28 25 24 24
65 70 63 58 59 54 55 54 57 52 57 60 57 56 60 59 63 62 59 57 57 56 55 51 52 47 44 46 42 39 39 40 36 42 41 41 36 33 34 36 30 28 29 29
66 70 71 64 65 62 60 65 57 59 61 61 60 58 61 66 58 56 60 61 58 57 55 52 49 50 46 42 42 47 49 47 50 48 49 46 41 35 39 41 36 35 35 36
73 77 72 70 67 65 58 63 64 64 66 64 58 61 62 62 58 62 66 58 58 59 59 58 55 50 48 45 44 52 54 55 53 50 46 45 49 46 45 45 41 40 42 41
78 78 78 76 65 65 64 67 63 63 63 68 60 68 68 62 60 63 61 62 63 63 60 58 54 56 55 54 51 57 59 60 57 53 51 53 55 56 53 49 54 47 45 44
77 82 80 81 75 61 67 70 70 70 67 67 68 64 66 60 65 64 63 62 59 58 58 58 55 55 56 57 62 64 57 55 53 56 62 62 63 64 63 54 55 60 51 49
79 84 83 85 79 76 71 71 73 75 77 69 71 74 70 64 69 71 69 67 67 63 65 65 62 59 63 63 66 69 71 75 75 75 75 73 72 67 66 65 60 61 59 57
83 81 83 85 83 80 79 74 75 78 79 76 76 75 73 68 70 72 72 71 72 70 72 69 73 76 79 80 82 83 83 84 85 84 81 79 77 73 70 62 60 64 60 59
86 84 82 84 85 81 85 85 82 85 84 82 82 79 77 77 77 79 82 82 80 82 81 82 83 86 87 87 88 89 90 91 91 90 89 84 80 77 72 64 62 59 67 67
89 88 85 85 85 86 85 85 87 85 87 87 87 86 87 86 88 90 93 95 96 93 94 93 93 95 97 98 98 98 99 97 93 91 90 91 87 81 76 66 68 68 67 67
90 92 90 88 88 88 89 90 91 93 90 90 92 95 96 97 98 99 97 98 99 98 100 102 104 101 98 99 98 100 100 100 98 97 98 98 97 92 86 79 78 78 77 72
87 92 92 95 92 92 95 95 93 93 95 97 96 96 96 97 98 101 103 105 106 106 105 105 106 106 107 110 108 104 102 102 104 104 101 99 96 93 87 83 81 82 80 79
78 85 94 96 94 98 99 96 97 96 96 99 100 101 101 102 103 105 105 106 105 107 110 109 107 104 101 99 96 95 94 92 92 92 91 87 84 82 80 80 79 80 86 84

GFSCGP_250_spd_087.txt.gz
Wind_Speed
89 86 89 95 99 96 86 82 71 64 63 63 58 48 43 43 32 31 34 36 35 34 33 30 26 24 26 30 30 33 30 29 30 27 30 37 49 50 53 44 41 54 57 53
87 89 92 95 90 87 62 66 57 59 56 57 52 46 42 37 30 32 38 36 36 31 29 28 26 23 21 24 29 29 27 27 28 26 28 34 45 49 53 51 45 35 48 46
88 91 92 95 76 68 58 53 56 53 52 55 49 37 35 30 35 33 36 37 36 31 26 28 26 25 21 20 24 27 26 25 27 24 24 33 37 51 50 53 46 39 36 46
91 95 94 86 76 55 49 53 57 57 55 48 46 38 28 32 27 28 33 36 34 33 26 29 26 26 23 23 22 23 25 23 24 23 17 24 36 44 47 51 47 38 35 39
96 96 90 73 62 51 49 54 54 53 51 51 41 41 32 30 27 29 33 32 35 36 27 30 22 24 23 19 18 19 24 23 22 22 21 16 25 36 44 44 50 38 41 47
94 89 84 66 58 52 51 52 52 54 51 48 40 42 31 29 35 35 31 31 35 37 28 28 23 23 22 21 23 20 23 25 21 19 20 18 16 29 42 41 49 41 43 46
91 83 70 59 55 48 48 54 54 57 53 38 42 43 35 32 37 36 34 34 38 38 32 30 29 22 24 22 23 21 21 22 23 20 18 18 17 17 27 41 46 45 45 49
84 76 65 55 47 45 49 55 52 49 45 44 47 40 34 39 36 38 34 36 42 41 35 32 34 26 25 24 25 25 23 24 20 23 21 16 15 16 19 31 40 47 52 53
67 57 53 46 44 49 48 49 55 54 48 46 41 41 46 40 36 37 35 37 40 42 38 35 38 32 29 27 28 29 27 26 23 24 22 20 17 15 15 18 33 41 52 58
58 54 45 45 41 43 52 48 50 53 52 45 42 43 46 44 40 39 37 35 39 36 41 40 38 34 31 34 33 31 29 28 28 25 23 21 22 18 16 15 17 29 40 50
49 48 46 45 41 41 41 43 57 53 49 43 40 43 47 46 43 44 39 37 35 39 38 38 40 40 39 38 34 31 29 33 29 27 25 23 23 23 16 18 16 13 23 34
45 49 49 51 43 40 42 43 56 53 45 43 44 44 46 49 49 47 44 41 43 42 42 38 40 40 38 36 37 35 37 37 35 30 28 27 25 20 17 22 22 22 19 15
48 56 53 54 44 39 45 54 51 50 50 48 48 42 44 43 51 53 52 48 43 45 45 43 45 44 40 39 39 39 39 38 40 35 32 27 30 28 28 23 27 24 23 23
53 61 54 57 49 44 49 57 54 53 50 47 46 47 48 49 52 50 56 55 51 45 46 43 40 38 40 40 41 42 42 41 39 40 32 31 30 33 36 33 29 26 27 29
58 62 57 59 56 51 57 59 50 50 53 52 52 52 53 57 59 59 59 52 48 45 46 44 42 43 44 43 43 45 43 45 44 42 41 37 36 39 40 40 37 26 31 35
58 66 65 65 62 56 62 56 53 57 56 57 57 59 61 61 61 59 59 51 49 50 50 47 49 48 49 48 47 45 46 46 44 43 42 44 46 46 46 45 44 40 42 42
63 65 73 70 69 60 58 59 61 59 63 62 68 69 64 67 69 60 54 52 52 51 48 47 48 53 54 52 49 50 52 51 50 49 47 46 49 49 50 52 49 45 49 51
69 69 74 73 75 64 63 60 59 62 64 62 60 55 59 63 66 61 57 57 59 58 54 49 51 56 59 56 55 54 57 56 54 51 53 51 52 51 57 55 53 55 62 60
75 72 74 71 78 71 64 61 63 62 65 67 59 57 61 60 61 58 57 58 60 57 53 52 56 60 63 63 58 58 54 55 53 53 55 55 59 59 49 54 59 66 64 65
75 76 75 76 70 78 77 69 67 67 71 61 61 64 65 61 60 63 66 63 63 62 58 54 55 64 61 60 60 60 63 63 63 56 48 47 48 58 64 61 67 69 70 71
71 78 77 76 75 67 78 79 74 75 70 64 65 67 67 68 65 69 67 65 62 63 67 66 65 65 67 67 68 64 63 58 58 60 64 69 72 73 72 72 66 65 67 70
68 76 78 78 78 72 73 76 81 80 71 63 64 68 70 71 72 68 67 68 68 68 70 69 71 69 70 70 72 71 72 73 75 76 76 79 81 81 83 87 85 75 73 75
73 74 81 78 82 83 82 80 79 78 74 66 65 67 69 72 75 72 78 77 75 74 76 78 76 74 78 78 80 80 81 83 84 86 88 89 91 93 93 96 95 93 87 82
68 74 84 82 80 81 88 85 85 85 86 82 77 73 71 73 76 78 80 80 81 82 81 80 80 81 83 84 85 87 91 91 95 98 100 100 101 104 104 103 98 95 95 96
68 70 77 87 83 84 84 88 91 93 95 91 89 86 85 83 84 84 86 85 85 87 88 90 91 91 94 94 97 101 104 104 103 103 105 108 108 107 106 103 104 105 102 99
61 69 75 85 89 89 86 89 92 98 95 93 93 91 93 93 90 90 93 96 97 98 98 99 99 100 99 102 103 103 105 107 110 111 112 110 108 105 101 97 93 91 90 89

GFSCGP_250_spd_090.txt.gz
Wind_Speed
86 88 90 88 87 84 83 81 78 73 77 83 81 73 66 65 60 52 45 42 38 30 32 30 27 26 28 25 27 25 29 32 32 31 30 24 24 31 48 51 66 68 66 60
86 88 87 88 88 87 82 84 78 80 84 80 81 73 64 54 45 44 42 38 34 30 34 32 27 27 28 27 23 24 27 32 32 28 28 27 21 25 42 52 53 63 65 64
82 81 79 82 85 86 87 89 85 87 82 81 71 66 52 42 40 38 42 40 29 28 35 35 25 27 26 26 24 23 24 26 30 31 27 27 25 19 29 48 55 52 51 57
82 80 76 79 80 84 84 84 86 88 78 65 60 47 37 35 38 40 40 33 31 29 36 37 27 26 28 27 24 20 19 25 28 31 27 25 27 23 20 34 53 52 48 45
77 77 78 78 81 82 79 83 83 80 72 56 53 38 33 39 42 44 43 35 33 28 37 38 32 26 30 28 21 21 21 23 23 27 27 25 24 24 25 21 36 53 48 51
77 76 77 78 78 79 79 80 79 67 54 45 49 29 41 43 36 41 45 35 30 31 40 39 32 29 31 27 21 20 22 22 25 22 24 24 21 22 23 25 27 36 48 48
78 77 75 74 76 76 74 77 67 56 40 37 42 32 45 48 39 43 44 36 33 30 39 40 36 32 33 28 23 21 21 22 25 21 22 24 21 19 20 21 25 28 37 42
76 75 76 77 75 73 72 67 56 47 37 35 40 43 50 51 42 42 45 38 32 31 38 41 37 35 36 32 29 24 22 23 26 25 25 25 24 21 19 17 19 28 30 38
75 77 76 72 67 64 64 65 47 41 38 39 44 53 51 54 42 41 42 41 35 33 37 42 38 37 37 34 32 29 24 24 26 26 28 27 26 26 23 20 17 19 24 30
74 73 71 66 62 60 55 49 42 38 41 46 51 58 56 49 44 43 43 43 40 37 38 41 42 39 34 36 31 33 29 28 29 23 28 28 28 24 26 23 19 16 16 21
72 71 69 60 54 52 44 43 39 43 45 51 53 58 56 50 47 40 39 41 40 38 34 38 44 41 40 37 32 31 34 31 31 28 30 30 30 30 23 21 19 21 20 18
70 67 66 55 49 43 41 43 41 43 48 54 55 56 52 46 46 43 43 38 34 38 35 38 40 41 36 36 35 35 36 34 30 32 31 33 33 32 28 25 26 21 22 22
65 62 57 45 42 45 49 46 40 45 49 55 57 54 49 46 46 47 44 36 33 40 40 42 42 40 38 34 36 37 39 34 32 33 33 35 36 35 32 30 32 30 25 24
55 53 50 44 45 52 52 50 46 47 50 51 59 54 53 41 47 44 46 41 40 40 41 41 38 35 35 39 37 37 37 37 37 37 35 37 38 37 34 32 32 30 32 30
52 51 47 48 51 57 57 50 49 49 45 51 60 58 54 43 40 39 49 52 44 39 41 41 39 40 41 40 39 36 38 37 38 38 38 39 40 39 40 39 39 40 38 36
48 50 48 52 55 64 62 55 50 52 49 54 60 59 59 54 49 48 46 47 47 48 43 44 44 42 42 42 41 42 41 41 42 42 42 41 41 42 42 41 43 44 44 43
49 51 53 57 58 65 66 57 49 51 53 60 64 63 61 64 60 60 55 53 58 51 46 45 48 45 46 43 43 45 45 45 46 47 47 44 45 42 42 46 47 47 47 48
52 55 58 60 59 64 69 62 55 51 61 62 59 64 64 64 63 63 60 63 60 56 52 54 53 51 52 50 49 48 47 48 52 53 53 52 50 49 49 46 46 48 50 50
51 55 61 65 61 69 67 66 59 54 61 63 62 62 64 64 67 65 61 62 60 57 54 55 56 55 54 53 53 54 51 52 53 56 59 57 59 58 57 54 55 55 52 52
51 56 61 67 64 67 72 74 65 60 63 64 62 61 62 64 65 63 62 65 68 68 67 64 64 62 58 56 53 52 53 53 56 59 61 60 60 62 59 58 59 61 54 50
56 58 61 70 66 64 75 72 70 67 63 68 66 65 66 68 68 68 69 70 70 65 62 61 61 62 61 57 57 57 55 56 56 57 58 60 59 60 66 66 54 48 55 64
55 57 60 69 69 65 69 75 76 68 66 71 74 71 71 71 70 71 69 68 66 65 61 60 61 63 67 68 68 66 65 65 66 65 65 64 65 66 60 60 65 67 72 74
53 58 62 66 72 68 70 68 75 75 73 75 76 74 72 70 71 74 74 73 71 67 67 67 66 69 68 68 67 69 67 69 73 74 74 65 68 74 73 74 77 80 82 85
63 60 60 61 75 73 72 70 72 78 80 78 78 74 72 72 72 74 77 75 73 75 75 75 74 74 74 70 71 73 73 75 77 76 75 76 78 80 81 82 86 90 91 94
52 58 62 63 66 78 76 72 73 75 80 86 86 82 79 79 78 78 79 77 79 78 77 80 81 81 81 79 79 79 80 83 84 84 85 84 84 87 89 92 95 97 100 102
57 56 60 64 66 76 83 80 78 78 80 82 85 85 88 88 86 84 85 81 79 78 79 82 82 83 85 85 84 84 86 87 89 91 91 92 95 96 100 104 102 106 110 112

GFSCGP_250_spd_093.txt.gz
Wind_Speed
96 93 91 91 85 81 83 79 81 77 82 84 86 78 71 73 67 74 71 70 59 47 47 38 43 42 34 29 26 27 26 26 26 29 34 34 25 20 20 28 55 54 54 60
95 91 97 91 84 83 81 82 82 78 82 83 84 79 74 69 65 74 76 66 51 49 37 41 44 39 35 29 25 27 25 24 24 27 32 31 29 25 13 23 39 64 59 57
98 91 93 91 88 86 83 82 80 77 75 80 81 71 67 68 63 67 64 47 44 40 37 41 41 35 37 29 28 28 22 23 21 25 28 30 30 28 19 12 24 49 67 67
90 88 85 88 86 84 81 84 80 72 73 75 76 63 59 61 63 59 45 40 42 41 40 37 39 36 35 30 31 27 23 25 19 22 26 26 28 27 24 14 12 26 50 68
87 87 84 83 85 86 82 85 74 69 72 70 68 71 48 58 53 45 38 47 46 44 46 37 41 36 36 33 31 26 24 24 18 19 24 25 28 29 23 23 17 11 26 43
85 83 84 83 84 86 85 75 74 69 67 60 64 63 42 47 40 43 45 52 47 50 52 41 41 37 37 35 31 28 25 25 17 18 21 23 26 28 28 23 20 19 14 21
90 87 87 86 85 84 77 72 71 70 67 58 57 49 40 40 41 47 49 54 51 52 54 42 39 42 38 36 32 29 26 27 19 16 19 22 24 26 26 27 23 18 19 16
81 78 79 79 74 72 71 70 70 65 56 52 49 30 41 45 47 51 53 52 49 47 48 39 42 38 40 37 33 30 29 27 24 18 18 20 23 24 24 26 25 22 20 19
72 74 74 69 68 65 64 64 64 60 50 51 43 30 50 42 54 55 55 53 49 47 49 38 41 39 41 39 35 34 33 29 28 20 19 21 21 21 23 24 24 21 19 17
67 69 66 65 65 62 61 60 63 56 47 42 36 33 50 45 57 58 56 51 50 48 46 41 40 41 42 40 38 38 36 29 31 28 23 23 23 21 22 23 21 18 20 19
69 66 66 65 63 63 60 60 56 51 39 34 34 41 54 49 58 59 56 52 53 50 41 41 44 45 43 41 40 36 38 31 27 31 29 26 25 21 23 23 22 19 16 17
70 69 70 67 65 62 59 56 54 46 37 36 38 44 62 51 57 51 59 57 54 49 44 38 45 49 46 45 40 38 37 33 30 33 34 28 27 24 24 25 25 24 22 21
75 74 72 68 66 62 58 52 51 43 38 37 41 47 65 57 47 45 53 58 58 53 47 42 42 46 44 40 38 38 39 37 35 35 37 32 29 29 27 26 27 29 27 25
68 69 68 69 66 59 53 50 45 41 38 42 49 52 66 63 54 50 49 51 56 54 44 43 41 41 40 38 36 38 40 37 36 39 41 40 34 31 31 31 30 32 33 32
66 68 68 68 62 53 47 45 40 40 37 42 52 57 59 58 61 52 50 45 44 47 49 44 38 40 41 39 41 40 39 40 42 41 41 40 38 35 33 33 34 35 36 34
65 65 64 61 57 48 44 45 41 44 41 48 54 59 58 54 56 56 51 47 43 46 46 47 50 49 45 41 42 43 39 42 45 45 41 39 38 39 39 39 37 39 41 42
60 61 60 58 53 48 46 44 47 52 46 47 56 56 60 57 49 53 53 52 46 41 41 45 50 54 51 51 47 44 44 46 45 45 43 44 44 45 46 46 45 46 45 43
56 59 56 54 50 45 48 51 52 54 47 49 53 57 57 60 53 51 55 49 46 49 52 56 52 52 53 48 46 45 45 47 48 47 45 47 47 49 48 51 52 53 52 50
51 51 50 48 48 48 54 56 59 61 54 51 54 57 61 67 63 59 56 55 55 51 58 65 60 54 53 51 51 52 48 50 51 51 51 51 52 50 50 53 57 59 59 60
47 48 47 48 49 52 56 57 64 66 57 54 55 57 61 70 71 65 61 64 66 60 61 58 64 62 55 53 53 54 52 53 54 56 59 59 57 53 52 54 58 62 64 63
46 47 48 48 49 55 61 57 66 69 63 58 55 61 67 76 76 72 76 72 72 73 74 71 69 62 60 59 58 62 61 58 59 59 60 61 58 57 56 56 58 60 63 62
49 50 52 48 49 60 66 61 61 69 70 65 61 63 75 77 76 76 77 78 79 77 70 69 66 65 64 64 62 62 65 68 68 69 65 67 64 63 60 59 59 62 65 65
52 51 52 48 52 60 69 62 57 68 73 73 67 65 75 76 77 76 77 79 79 76 73 74 73 72 73 74 75 76 71 68 67 67 67 68 70 70 72 68 67 69 69 70
48 54 56 53 52 55 65 66 59 63 71 77 75 73 72 74 79 77 74 74 76 77 77 76 76 76 78 81 78 76 74 72 72 72 71 70 70 72 71 73 76 78 76 75
53 59 58 51 51 56 59 67 66 62 66 77 83 80 80 76 80 83 78 77 78 79 80 80 80 79 79 77 78 80 80 80 79 79 78 77 78 78 77 78 80 77 77 79
56 55 50 52 53 56 61 65 71 73 67 67 83 87 83 84 83 87 85 83 83 83 83 84 81 81 83 84 83 81 81 83 86 86 86 86 87 86 89 90 86 84 84 86

GFSCGP_250_spd_096.txt.gz
Wind_Speed
92 87 82 91 91 84 83 78 76 74 75 75 75 68 69 69 73 71 72 71 70 67 62 62 57 60 48 46 35 32 31 25 22 24 22 22 25 29 17 17 30 45 49 46
96 90 89 90 90 91 87 83 83 83 84 82 81 73 70 71 73 71 71 72 68 64 63 57 58 54 48 44 35 34 30 25 21 25 20 20 23 25 20 15 24 39 54 52
101 95 96 95 93 90 90 91 89 89 89 89 88 79 73 73 74 69 62 63 64 63 58 57 58 54 47 39 35 35 31 25 22 22 17 17 22 21 23 17 9 30 56 59
100 100 98 95 96 94 88 89 89 88 89 84 84 76 72 70 73 65 63 62 63 63 56 56 49 46 47 38 37 36 32 25 25 20 15 15 18 21 21 21 13 9 31 60
96 94 92 92 92 88 87 88 87 90 82 74 66 77 61 71 65 67 66 63 61 58 55 52 45 48 46 34 39 37 33 28 26 19 17 14 16 18 19 21 20 13 7 30
87 89 91 93 92 91 87 86 81 75 70 63 71 72 59 64 60 64 66 60 56 58 52 43 43 52 40 41 40 39 36 29 27 22 18 14 14 16 16 16 17 17 12 5
83 83 84 81 79 79 78 75 75 72 71 70 78 70 61 57 62 57 64 48 54 45 38 43 48 55 46 47 39 39 37 31 28 24 20 16 13 15 15 15 16 18 12 10
78 78 78 79 76 78 75 71 72 72 75 79 72 62 51 59 61 52 51 50 43 34 39 44 55 52 46 46 37 41 38 33 28 26 23 19 15 15 15 15 16 17 16 12
71 74 77 77 81 82 80 81 80 78 73 68 58 51 43 52 50 48 38 44 37 35 41 51 58 56 47 48 38 42 38 35 29 27 28 24 18 19 17 15 16 15 15 13
66 69 71 74 76 76 75 72 69 65 61 51 46 45 43 48 46 40 39 40 39 40 47 57 60 56 50 50 37 41 40 37 31 30 28 29 24 24 20 18 17 16 15 12
67 65 64 66 64 61 64 61 60 57 52 44 39 37 46 42 46 34 38 43 42 47 51 54 58 56 52 46 36 40 40 39 33 31 32 31 32 29 23 20 19 17 16 18
76 72 68 66 60 60 59 56 54 51 48 39 35 37 44 40 43 36 44 46 46 50 51 55 58 54 51 49 39 38 39 37 35 36 35 33 32 32 29 23 23 22 20 20
83 78 72 67 64 64 63 58 55 50 47 41 29 36 42 36 44 42 45 45 52 52 50 56 55 53 50 50 45 39 39 36 37 35 35 36 36 33 32 28 28 26 24 22
78 78 74 71 68 67 64 62 59 53 47 40 33 36 40 38 53 48 50 50 56 53 52 55 53 48 48 46 46 43 41 40 40 41 44 41 39 34 33 35 34 31 28 27
72 73 76 77 72 68 66 66 56 50 44 37 33 37 41 48 55 51 55 52 57 59 54 48 44 42 42 40 45 48 46 42 42 41 45 45 43 40 38 39 39 36 33 32
63 64 67 67 66 67 68 59 52 44 37 35 34 38 46 53 54 56 57 58 52 58 58 43 44 42 40 38 44 46 46 47 47 47 46 46 44 44 42 40 40 39 37 36
61 59 58 61 60 58 56 52 48 42 36 32 36 43 54 53 49 53 56 62 52 53 61 54 47 40 41 45 46 50 52 53 52 48 48 46 43 45 46 44 45 44 42 42
61 59 57 58 56 56 53 47 44 40 34 33 41 52 55 49 45 50 61 54 56 51 54 60 62 59 51 47 46 49 51 51 52 50 48 48 49 51 51 51 49 48 48 46
56 56 57 57 55 54 50 46 44 39 36 38 45 57 55 55 56 48 51 57 53 60 59 58 62 60 53 59 57 54 52 52 50 50 50 52 53 52 53 54 53 51 52 53
50 52 53 52 52 51 52 48 45 42 40 41 49 52 59 58 57 57 55 59 61 60 65 64 61 62 56 52 57 60 56 54 52 53 53 54 52 52 55 57 57 56 58 57
47 48 50 47 48 50 52 48 43 41 44 46 53 51 59 63 65 62 66 68 65 66 66 70 68 71 66 65 64 66 67 62 59 59 59 57 58 57 60 62 62 62 61 63
45 46 46 44 47 51 47 44 41 43 47 53 57 56 60 69 73 71 74 77 75 68 67 68 71 74 73 73 70 68 66 65 67 64 64 65 64 64 64 66 67 69 69 69
43 44 45 46 48 50 47 45 41 46 52 60 64 64 66 69 73 78 84 84 82 77 73 69 63 67 73 69 73 77 71 70 70 68 69 71 69 70 73 74 75 77 78 78
42 44 46 46 49 50 46 45 44 49 54 65 73 71 70 73 77 78 79 82 85 82 80 75 70 72 72 70 76 73 76 73 76 76 74 73 74 75 76 77 82 83 79 76
46 47 49 52 50 50 45 42 47 51 56 65 76 80 79 78 78 79 85 80 79 84 85 82 81 77 78 79 81 83 84 80 79 78 79 80 81 83 84 84 83 83 82 83
48 51 54 55 49 50 49 46 48 49 59 62 75 85 86 83 82 81 77 80 80 80 84 87 86 83 85 84 84 85 87 89 89 90 90 90 91 92 90 89 87 85 87 88

GFSCGP_250_spd_099.txt.gz
Wind_Speed
103 96 84 84 88 86 84 79 75 73 75 74 68 63 66 66 66 67 67 70 68 65 65 63 64 62 61 62 54 51 48 41 33 28 28 23 24 23 19 25 22 23 33 47
109 98 95 95 94 89 86 85 83 80 80 76 72 66 68 66 68 70 68 72 71 71 71 69 71 63 58 59 56 53 46 40 34 30 28 22 23 21 17 23 18 19 29 49
105 102 101 100 97 94 92 88 87 86 86 84 80 71 72 74 74 78 77 74 76 75 75 75 71 58 54 58 57 51 49 41 36 32 28 21 20 19 16 16 17 14 23 50
108 106 104 104 102 98 98 94 90 87 85 85 85 75 77 79 83 84 84 84 82 75 70 70 63 49 55 59 56 48 46 40 35 34 29 24 20 17 14 13 14 10 13 37
101 101 109 105 103 105 96 97 95 92 90 87 82 83 75 79 88 88 86 81 72 64 63 62 56 55 58 58 50 44 39 40 36 36 30 24 22 16 12 12 10 11 6 15
101 102 101 103 104 102 101 102 98 98 96 91 88 86 76 81 88 83 79 77 64 64 59 54 55 59 61 56 47 37 42 41 39 38 31 26 23 16 12 11 9 9 8 4
85 89 94 99 99 98 98 97 94 94 93 92 89 83 79 84 83 79 70 65 65 62 54 54 58 63 58 51 42 45 46 44 42 41 34 29 26 18 12 10 11 9 10 8
70 73 80 84 85 85 86 88 89 84 83 80 81 81 78 72 64 59 62 67 63 53 52 58 60 54 51 43 40 50 46 44 43 42 36 32 28 22 15 11 12 11 11 11
60 61 66 68 68 69 70 70 70 72 72 70 68 64 56 56 59 63 68 62 52 51 54 58 54 47 43 38 46 52 48 43 44 43 37 34 29 26 20 14 12 14 11 12
55 55 58 64 65 63 65 65 66 65 62 62 63 61 61 62 65 60 54 48 47 50 53 55 47 42 41 42 44 49 48 42 43 42 38 35 31 29 26 20 17 16 14 13
56 54 54 58 61 61 61 62 64 65 64 63 63 64 64 60 52 48 47 44 42 49 51 47 40 40 42 42 44 49 46 43 42 41 39 37 34 31 30 28 25 23 19 16
61 58 56 53 55 59 63 63 63 61 58 56 53 47 45 42 41 42 44 40 41 43 40 38 38 44 44 44 42 46 47 45 43 40 42 42 38 32 28 29 32 28 26 20
67 61 57 56 55 58 58 54 50 48 46 41 37 40 37 39 41 40 43 33 37 35 32 29 41 45 46 48 46 48 49 45 45 41 44 44 41 35 31 31 33 33 32 27
70 70 66 62 61 60 59 57 53 50 48 43 33 37 32 37 39 38 36 29 34 30 33 35 41 46 49 51 49 47 45 48 45 44 43 43 40 37 37 37 36 33 31 32
79 77 75 71 68 65 64 60 58 55 51 47 40 43 40 39 40 38 34 30 32 29 35 44 37 43 46 46 48 46 45 49 46 47 45 44 44 42 41 40 40 41 38 36
76 76 75 72 69 67 67 65 64 63 54 54 50 44 42 40 42 39 38 38 42 38 45 43 45 39 43 45 46 48 48 52 48 46 44 44 47 49 51 50 47 46 46 44
67 72 72 70 69 68 69 66 64 64 60 54 50 45 41 39 41 40 43 47 44 41 46 47 46 47 42 44 44 47 50 52 51 50 51 50 54 55 57 52 46 45 44 43
56 59 63 63 64 62 61 59 56 56 49 48 43 36 37 36 37 41 49 50 48 47 49 52 51 50 47 43 48 49 53 54 57 57 58 60 60 61 58 52 50 49 49 49
53 55 57 58 57 57 56 53 50 50 44 39 33 33 34 37 40 46 46 50 49 49 51 53 55 56 52 51 50 49 42 37 57 54 57 61 60 59 56 53 51 50 52 52
52 53 55 55 56 57 55 52 48 47 40 37 32 34 38 45 45 52 44 54 53 57 61 62 63 62 58 56 55 55 57 63 60 57 62 60 56 56 57 56 57 57 56 57
48 50 50 51 56 58 55 50 48 49 42 38 35 37 49 52 53 56 54 57 62 62 64 63 63 62 62 62 65 62 58 57 57 63 63 59 59 61 62 61 62 62 62 60
44 45 46 47 51 53 49 47 47 47 45 39 38 42 58 58 61 63 62 62 63 69 66 68 66 65 66 66 67 64 70 67 69 65 68 69 69 69 70 68 67 68 66 65
43 45 46 46 47 47 44 45 45 45 45 40 41 49 66 67 71 70 72 69 72 72 74 70 71 68 67 65 63 68 66 67 68 63 73 73 74 73 72 72 73 71 73 72
45 46 45 45 45 45 44 43 44 43 43 41 43 52 70 72 77 80 81 82 82 79 78 75 81 75 73 73 74 72 75 74 76 70 80 77 79 80 78 78 80 80 78 76
44 44 45 44 45 45 44 44 44 44 42 43 46 54 73 76 80 87 89 85 86 87 85 81 78 77 79 78 82 81 82 83 81 81 85 88 87 85 84 84 84 82 84 85
45 45 47 46 46 45 45 46 46 45 45 47 48 54 70 81 81 82 92 94 90 87 87 85 80 78 79 77 77 80 84 86 89 88 88 87 87 90 90 85 86 89 92 92

GFSCGP_250_spd_102.txt.gz
Wind_Speed
99 102 102 102 97 99 96 89 84 80 74 73 70 71 71 71 71 72 72 71 70 70 68 65 59 61 60 61 63 65 66 62 58 52 47 43 39 35 32 24 23 26 27 26
96 88 98 103 103 102 101 92 88 85 81 76 73 71 74 74 73 74 73 72 72 69 67 66 66 66 65 61 63 67 67 63 54 49 47 42 42 36 31 24 21 23 24 24
86 90 98 97 104 101 103 98 91 87 84 80 77 73 74 72 74 75 74 70 69 68 65 62 65 66 68 68 70 71 66 58 52 48 44 40 42 37 28 23 22 21 22 24
79 83 91 98 102 103 104 104 97 91 85 83 77 79 78 80 79 78 76 74 73 73 72 72 73 74 72 73 74 68 64 54 52 49 46 42 42 36 25 22 20 18 18 21
73 77 85 96 101 103 101 103 101 97 90 84 83 80 80 81 85 82 79 80 79 78 75 75 77 78 78 79 71 67 65 57 53 53 43 41 43 35 26 21 19 16 14 15
70 73 79 88 98 101 97 100 102 99 95 89 89 88 86 86 87 83 83 83 82 81 80 79 80 77 78 72 70 70 66 56 54 49 40 45 43 34 28 22 17 16 16 11
65 67 72 80 91 97 98 97 99 100 98 94 90 91 91 90 89 90 87 86 85 84 82 83 84 82 76 70 70 69 64 58 52 46 44 48 44 34 31 23 16 14 14 11
63 62 65 73 81 88 94 95 92 95 94 92 92 92 92 93 91 90 90 89 90 89 86 84 78 73 71 71 69 66 63 56 50 41 51 49 45 36 32 26 20 16 13 12
63 60 62 66 74 80 87 90 89 89 92 93 94 94 94 92 90 89 88 87 85 86 89 90 81 67 70 72 66 62 58 50 46 45 51 51 45 37 35 30 25 20 17 15
63 59 57 58 61 66 71 76 81 86 87 87 87 89 89 88 86 84 83 80 75 75 71 67 66 71 72 66 59 54 47 47 43 53 51 51 46 41 37 34 30 23 20 19
60 56 52 51 51 54 58 60 63 65 66 67 67 68 66 64 64 62 58 57 57 58 60 65 66 65 58 51 50 44 41 43 49 54 51 51 47 43 40 38 35 31 25 23
60 57 52 49 48 48 49 48 47 47 48 48 48 52 52 48 49 51 52 53 59 63 60 57 54 54 46 45 41 37 42 47 52 53 50 50 47 46 42 40 39 37 33 30
61 58 52 50 46 43 42 44 44 44 46 48 50 50 50 53 54 54 55 53 51 50 48 48 47 46 41 38 34 39 45 49 53 50 48 50 48 47 43 41 39 34 31 32
61 59 56 53 50 46 42 43 47 50 52 54 54 52 47 43 40 40 40 40 43 42 42 39 40 37 33 35 36 41 45 49 52 47 45 49 49 47 44 43 42 38 35 34
66 64 62 56 52 49 47 46 47 50 51 52 47 45 40 36 36 35 34 33 35 34 32 31 25 28 34 37 38 41 44 46 52 46 50 51 48 46 45 45 45 41 39 39
74 70 68 63 59 57 54 52 51 51 53 52 50 47 44 39 36 34 34 31 28 25 13 16 24 33 31 39 42 43 41 42 47 48 46 52 51 49 48 48 49 48 47 46
71 75 72 69 65 63 59 56 56 55 52 51 48 48 46 47 45 41 36 33 27 26 19 41 27 35 33 38 45 48 46 46 45 48 49 52 50 52 50 52 53 52 52 52
66 63 67 66 65 62 62 61 60 58 57 56 54 54 53 50 50 45 37 35 30 47 38 33 24 32 41 37 39 40 44 48 47 50 50 52 50 49 47 49 53 60 61 57
59 58 62 65 65 65 64 63 63 62 62 61 58 57 52 51 48 40 35 39 41 63 49 41 37 26 45 44 41 41 41 44 49 52 54 52 57 57 57 61 64 65 64 61
52 52 58 62 64 67 67 65 66 64 63 60 56 51 45 43 40 38 37 42 49 70 66 59 53 50 44 47 48 48 47 49 54 54 54 58 61 60 62 65 66 66 64 64
49 51 55 59 59 61 62 61 61 60 57 54 49 45 41 38 39 38 39 51 61 66 77 71 52 60 57 57 52 53 54 54 57 56 50 53 52 60 63 66 64 64 65 66
47 50 54 56 56 56 56 57 59 56 52 50 47 43 39 38 41 41 46 60 59 71 68 65 64 58 60 62 62 60 59 60 59 58 59 56 59 61 63 61 63 68 66 66
48 49 51 52 54 52 52 53 53 52 51 48 46 45 43 42 47 50 56 67 67 64 74 67 69 64 66 65 66 67 69 70 67 67 71 75 65 70 68 69 71 74 73 72
48 48 48 49 49 49 49 49 48 49 49 48 48 47 46 48 52 56 66 70 72 73 68 75 76 75 73 74 72 72 72 72 74 74 76 76 71 73 71 73 78 79 81 82
46 46 46 45 47 47 46 46 46 47 47 48 49 48 48 50 56 62 72 73 78 81 77 77 83 80 79 78 78 78 78 78 78 77 79 84 85 83 81 84 86 89 89 87
45 46 46 46 46 46 44 45 47 47 48 47 48 49 50 53 59 66 79 80 82 85 89 84 82 85 89 81 82 83 82 80 81 82 83 85 86 86 87 88 93 90 90 92

GFSCGP_250_spd_105.txt.gz
Wind_Speed
107 107 98 99 109 106 107 103 98 90 88 89 81 74 74 70 67 65 65 63 64 65 68 68 66 65 66 69 65 64 62 60 60 61 62 63 66 61 48 43 38 37 33 33
100 87 92 104 107 110 110 107 97 94 93 85 86 77 73 73 70 68 70 68 66 66 69 72 74 74 73 65 63 64 64 63 62 61 64 65 66 62 47 42 37 37 32 31
85 82 96 101 103 101 102 104 101 98 96 87 84 82 77 79 75 72 72 74 72 70 70 72 75 74 67 63 60 58 61 63 63 66 69 69 70 62 48 40 36 35 31 27
68 80 82 86 89 92 94 96 97 97 93 89 89 86 88 80 79 79 76 74 75 76 73 71 70 70 68 66 67 67 67 72 72 71 72 74 67 64 48 44 37 33 29 24
60 66 67 75 79 85 86 94 93 87 87 90 89 87 91 86 84 83 81 77 75 76 76 74 72 71 71 70 70 72 73 75 74 76 75 75 70 62 51 43 37 32 26 22
60 62 60 67 73 70 76 83 88 91 91 88 87 88 92 96 89 85 84 83 80 79 78 77 74 74 74 75 76 77 79 80 77 75 77 72 71 58 51 40 37 32 24 23
55 56 57 58 61 64 64 69 77 85 88 86 94 91 91 97 89 88 85 83 80 79 77 75 76 77 78 80 80 79 79 82 80 80 73 71 64 55 49 38 38 34 24 22
54 53 53 54 55 55 59 63 64 77 83 88 90 91 97 92 95 91 89 88 87 85 83 81 81 82 84 86 82 80 83 85 86 79 75 72 59 50 46 41 41 35 26 21
52 53 53 53 51 51 54 57 61 67 77 88 85 93 91 91 91 92 91 90 88 87 87 86 85 85 86 86 84 84 84 83 83 72 76 64 56 46 43 46 44 36 31 24
48 51 52 51 48 49 53 59 62 65 69 79 85 87 86 87 87 89 88 91 89 89 90 88 86 86 87 86 86 81 79 77 72 73 64 59 49 46 45 50 46 40 35 28
47 49 51 47 45 47 50 55 55 56 59 65 74 79 84 85 85 85 87 85 88 85 87 90 91 91 90 85 83 81 78 72 68 64 56 51 44 47 50 51 48 42 38 33
45 51 49 46 42 44 48 50 52 56 59 62 67 74 82 84 83 82 80 83 84 84 87 85 81 75 72 72 67 69 71 65 57 48 47 46 43 49 54 51 48 45 41 36
52 52 50 47 42 41 43 46 46 53 54 57 60 61 68 72 75 75 75 75 70 64 59 55 57 59 62 64 66 62 55 46 42 44 43 40 48 50 49 52 50 47 44 42
58 56 51 49 46 42 43 44 44 43 46 49 50 52 51 52 53 49 48 45 47 49 52 55 58 61 56 53 48 45 41 38 41 38 36 44 47 45 52 54 52 49 46 44
61 58 52 50 48 46 44 43 41 41 43 43 42 44 46 45 41 41 43 47 52 52 52 51 50 42 38 35 37 38 34 37 37 38 42 46 43 48 55 55 51 49 48 45
64 61 57 54 51 48 47 46 46 45 49 49 46 45 48 48 48 47 45 40 43 44 39 39 34 25 26 28 32 29 28 35 39 43 48 47 44 47 53 53 51 50 49 47
66 67 63 60 59 56 55 52 52 50 46 52 51 51 52 52 50 46 41 34 35 37 33 24 18 14 27 20 27 25 31 38 42 47 49 49 45 50 53 54 51 50 49 47
66 68 67 64 62 59 56 55 52 46 50 51 52 54 55 54 51 47 45 41 34 31 27 26 30 33 42 26 26 29 33 39 42 45 49 48 44 47 51 55 54 53 51 47
63 70 68 65 64 63 60 57 54 53 53 53 54 55 54 53 50 47 45 43 37 28 38 35 30 39 39 28 31 35 37 39 41 41 41 43 48 49 49 52 54 53 53 57
62 65 70 69 66 65 63 61 59 58 57 56 57 57 55 52 53 53 51 47 40 31 51 51 50 44 39 40 28 36 38 45 45 43 43 47 46 50 53 55 52 50 52 54
59 59 60 67 69 69 67 66 65 63 61 62 62 61 60 59 58 56 54 49 38 38 61 63 57 50 53 41 42 30 38 41 46 48 58 49 58 53 56 59 61 62 63 68
53 53 52 54 60 65 66 67 67 65 65 65 64 63 62 62 60 56 54 48 39 43 73 72 70 69 62 59 53 43 49 44 43 40 46 58 58 60 63 60 61 64 67 68
50 51 50 50 54 57 61 64 65 66 66 66 66 65 63 59 55 53 49 48 44 50 77 79 75 73 68 64 67 55 55 54 48 55 58 59 53 56 67 62 62 63 59 67
47 50 51 49 51 52 55 57 58 59 59 59 59 58 56 54 52 49 49 51 49 53 60 83 80 78 77 70 73 65 66 69 65 58 67 72 71 66 63 75 71 69 70 71
50 52 52 52 50 50 51 53 54 55 56 55 55 55 55 55 54 53 53 55 54 56 61 74 88 85 85 78 79 74 75 72 74 75 75 76 75 71 77 79 78 79 75 77
51 51 49 49 48 48 48 49 51 52 54 54 54 54 55 56 57 57 58 60 59 61 65 74 80 98 94 90 83 80 80 87 92 87 84 85 83 85 86 87 86 89 89 81

GFSCGP_250_spd_108.txt.gz
Wind_Speed
88 96 95 92 95 97 101 104 103 98 98 95 91 86 85 76 78 76 70 63 60 57 56 55 56 57 59 53 61 60 52 58 60 61 63 61 59 59 53 57 62 63 59 49
78 75 70 83 94 97 100 99 97 97 99 102 99 89 88 78 72 73 74 67 67 63 59 58 57 58 59 58 59 60 58 60 67 67 64 55 53 56 60 63 63 62 61 47
69 56 71 78 82 83 90 93 91 90 99 107 99 90 83 75 75 78 76 73 70 68 63 60 60 61 60 62 65 65 66 65 64 67 65 60 59 66 63 64 65 63 57 44
58 61 62 65 68 72 79 83 88 94 100 101 93 91 86 84 83 80 77 77 75 67 67 63 60 61 64 65 65 65 66 66 61 65 65 65 63 63 65 66 65 60 55 43
50 56 56 53 53 65 65 79 88 93 94 92 91 86 84 91 84 83 78 72 74 74 72 71 65 61 62 65 66 66 60 59 60 64 69 66 64 67 70 66 67 59 57 42
45 48 49 48 53 53 61 73 73 80 89 91 83 81 85 92 89 88 80 78 79 79 74 71 71 70 69 69 69 71 72 69 69 64 72 70 70 70 68 68 69 61 56 41
41 42 43 46 46 48 52 58 66 73 78 72 78 81 81 90 91 86 81 85 83 78 77 77 77 76 72 72 73 73 73 72 71 70 75 74 73 74 70 67 67 61 50 39
35 38 39 40 42 44 45 49 54 55 57 64 78 84 82 88 89 85 82 82 81 80 77 81 79 75 72 72 73 74 75 73 70 75 75 80 74 75 70 66 61 59 43 36
32 35 35 39 40 39 40 35 40 42 43 50 59 69 75 83 83 81 82 82 80 80 82 81 82 78 75 76 76 77 76 77 75 78 78 80 74 73 66 61 56 49 41 36
32 35 38 37 36 36 35 38 35 34 33 43 51 54 54 53 67 77 75 80 82 83 83 81 81 81 80 81 83 84 84 84 83 82 84 82 79 73 67 58 56 43 41 40
30 31 33 31 33 36 36 32 32 42 42 37 52 58 62 67 73 78 80 81 81 81 80 82 80 80 82 82 82 83 84 85 82 81 84 81 75 68 58 57 50 38 41 45
25 30 32 36 37 38 33 34 38 47 47 47 45 51 69 78 80 82 77 79 76 77 78 78 77 78 79 80 80 81 77 77 82 86 83 74 60 58 55 52 40 41 43 49
27 30 36 34 35 33 32 36 38 36 45 53 52 60 62 69 73 68 73 70 71 72 72 72 73 75 76 78 78 80 80 79 81 77 69 64 59 56 50 41 39 43 49 51
34 35 37 41 40 36 36 41 48 52 53 57 62 67 59 55 56 61 60 60 63 66 69 73 75 76 76 77 78 79 76 71 66 62 58 52 44 42 39 41 40 43 51 52
40 44 48 45 39 37 40 45 48 51 54 53 52 52 55 58 57 53 53 57 60 62 63 66 67 65 61 63 65 63 59 55 54 48 40 39 40 41 41 39 40 45 53 52
46 50 48 40 45 46 48 48 48 47 49 53 56 57 61 61 56 47 39 41 45 43 40 43 47 49 52 53 46 45 40 38 36 36 38 38 38 40 38 43 43 48 52 53
51 52 50 49 43 45 43 45 45 46 53 53 50 49 50 49 44 38 40 42 39 41 44 45 48 42 37 31 30 32 31 33 31 33 35 36 36 39 45 41 43 49 51 51
56 59 57 54 54 54 51 50 51 53 53 51 49 49 46 41 39 41 45 44 46 46 47 39 34 31 30 26 21 20 17 18 24 27 33 34 38 45 43 44 46 49 51 50
55 61 59 58 55 53 52 50 51 52 51 51 50 49 47 46 47 46 48 48 48 50 45 39 33 31 32 25 25 33 25 15 25 23 30 32 41 39 44 48 48 52 54 52
55 59 62 61 58 57 56 54 53 52 52 51 50 49 50 51 52 50 52 53 53 53 48 43 36 40 43 36 43 47 36 26 24 32 33 37 39 42 42 46 49 52 53 54
57 61 63 64 63 60 58 56 57 53 53 54 52 50 49 50 52 55 57 57 57 53 48 43 40 48 54 46 51 50 38 26 30 30 39 39 36 40 46 43 46 54 54 54
60 63 65 67 67 63 62 60 59 58 58 58 56 54 53 53 55 58 60 60 59 56 52 46 43 56 61 51 56 51 48 31 41 48 45 49 39 49 36 46 51 53 58 60
57 59 60 62 66 68 67 66 64 64 63 62 61 61 60 59 60 61 62 61 62 62 58 45 47 65 64 61 61 66 58 49 49 51 44 54 56 55 55 55 54 65 59 60
49 53 57 56 57 61 68 71 70 68 68 69 69 69 68 67 67 67 68 67 67 65 62 50 48 74 69 72 71 68 65 58 61 49 53 53 51 66 62 65 66 76 66 72
43 47 51 52 51 52 57 63 68 72 74 75 75 75 75 74 72 71 71 71 70 67 63 52 48 81 77 80 80 79 77 76 71 64 59 72 69 67 67 67 66 70 76 79
43 45 48 50 50 50 51 55 59 62 64 66 67 68 68 69 69 68 68 67 66 64 61 58 52 81 87 86 85 85 83 83 85 84 73 76 81 74 78 76 75 79 82 77

GFSCGP_250_spd_111.txt.gz
Wind_Speed
101 94 82 92 98 96 97 96 92 89 87 95 95 84 95 90 89 84 78 74 66 62 59 60 54 55 53 50 46 46 48 51 46 56 50 49 50 51 55 54 61 55 55 56
88 71 77 84 85 84 88 92 88 87 87 91 92 85 90 93 90 85 80 75 71 63 62 60 61 56 56 52 47 42 47 51 51 53 54 50 50 51 57 56 59 55 59 57
68 63 69 68 69 69 71 76 75 77 86 92 90 84 88 90 88 86 79 76 71 68 64 65 63 54 53 53 50 47 48 50 51 51 55 52 54 56 57 57 56 53 60 58
58 64 60 58 56 57 59 63 66 71 81 89 89 86 83 91 82 77 77 81 81 75 66 62 57 57 55 57 54 50 46 48 51 53 60 57 54 56 56 54 53 57 57 59
58 52 51 46 45 48 49 55 60 66 71 76 84 88 76 80 81 80 81 85 83 74 63 58 60 63 58 57 57 54 48 49 52 57 62 64 58 54 53 58 59 57 60 61
45 40 37 39 38 38 50 53 50 53 61 64 75 79 70 73 82 84 83 82 77 73 67 65 64 63 65 65 65 61 58 52 53 56 58 62 57 57 58 62 63 61 62 63
34 34 33 32 33 35 42 37 40 42 42 46 66 67 70 70 81 83 81 78 77 78 74 71 68 67 65 66 66 67 65 62 57 58 59 66 60 59 63 63 63 61 65 61
28 28 26 29 34 36 30 28 33 35 37 47 60 54 63 72 77 75 75 72 75 78 78 75 72 70 70 67 69 71 71 69 67 61 58 65 64 65 64 63 63 65 68 67
24 26 26 27 28 27 30 29 38 35 37 43 44 47 58 69 67 73 72 65 70 75 80 79 77 72 73 72 71 70 73 70 69 63 59 65 68 65 64 69 71 72 68 64
20 21 22 22 22 25 29 24 23 24 27 30 34 36 43 53 67 74 71 68 70 69 75 78 76 73 72 74 73 71 69 70 70 67 64 69 76 73 71 72 71 69 63 59
23 23 21 23 28 29 27 26 26 30 29 27 26 30 37 17 35 51 60 74 73 68 71 70 70 72 72 73 71 69 69 68 68 68 69 72 74 67 63 62 64 61 57 52
19 19 20 23 25 29 31 31 33 36 36 26 22 35 32 48 54 39 50 55 65 70 72 67 63 68 68 71 69 70 72 72 70 67 65 66 64 61 58 59 63 65 59 51
12 17 25 26 29 29 27 33 42 40 41 32 31 46 42 47 52 54 57 57 43 45 52 63 70 70 67 66 68 70 71 71 69 69 67 63 62 63 58 61 63 60 55 54
21 25 29 35 32 32 34 36 41 45 45 40 45 55 59 63 66 64 61 60 57 51 52 56 61 65 64 63 64 65 66 67 67 66 66 67 66 62 55 59 69 67 60 53
29 34 38 37 40 39 38 42 46 48 48 50 54 50 53 62 59 56 59 61 59 58 57 56 56 54 53 55 57 59 60 64 69 70 69 69 68 64 60 63 67 60 59 52
38 42 44 42 43 45 49 51 46 49 56 53 49 48 49 47 47 48 50 49 46 41 40 44 46 47 48 49 54 58 61 64 62 64 63 60 59 59 50 43 43 48 49 50
44 44 44 43 45 47 44 42 43 47 47 46 48 48 44 44 49 44 46 43 44 44 46 45 47 47 44 43 47 51 53 55 54 53 52 48 46 45 36 46 44 44 47 50
43 44 47 50 51 50 44 44 47 49 50 50 51 49 48 49 48 47 47 49 47 50 50 44 38 36 37 42 44 46 47 37 30 36 34 37 39 41 37 40 42 50 48 52
48 51 51 53 53 50 47 48 48 51 53 54 55 54 54 52 52 52 50 50 55 52 44 39 40 38 42 41 43 40 33 32 19 23 18 25 29 34 36 49 52 50 59 54
48 53 55 54 54 53 49 49 49 49 51 53 53 51 51 52 55 56 53 51 48 44 40 43 45 44 45 42 38 36 36 36 30 24 25 27 23 28 38 45 47 51 55 52
53 57 56 55 52 51 51 51 49 50 51 52 53 54 55 55 52 50 49 47 47 46 44 48 51 48 49 45 43 40 43 40 38 33 36 31 31 29 32 43 45 44 45 49
55 59 61 61 58 56 53 54 53 54 54 53 53 53 53 53 52 51 53 53 52 53 52 53 55 56 54 48 47 45 48 47 47 49 46 41 40 34 35 45 40 38 42 44
58 60 63 65 64 60 58 57 56 57 57 55 55 55 55 55 54 53 54 57 59 61 61 63 62 60 55 49 49 50 59 57 59 64 54 50 44 40 39 51 48 50 54 55
55 57 60 61 63 64 65 63 61 60 60 59 58 59 59 58 58 58 58 57 58 60 62 64 64 62 59 56 55 52 68 67 67 66 62 58 56 59 54 57 61 59 62 61
51 55 57 57 59 61 63 65 67 67 64 63 63 63 65 64 64 64 64 64 64 65 65 66 67 68 67 63 59 58 69 78 75 77 70 70 65 70 63 62 69 61 63 69
43 47 52 55 57 59 60 61 63 67 69 71 71 71 70 70 70 70 71 71 71 72 73 74 75 74 73 69 66 64 67 84 85 82 80 74 69 72 71 71 73 75 73 76

GFSCGP_250_spd_117.txt.gz
Wind_Speed
98 102 103 109 112 109 102 105 109 106 107 108 116 115 108 102 102 98 92 91 88 77 67 71 79 84 86 77 66 65 57 53 46 44 41 40 41 41 41 43 44 44 37 38
97 99 108 104 106 112 107 109 106 102 103 105 102 102 95 93 90 89 88 82 77 71 70 73 84 89 87 73 65 64 57 52 48 47 45 40 41 42 42 41 42 44 43 40
103 109 106 106 100 109 104 102 104 95 87 87 81 76 78 80 83 84 82 77 74 70 72 76 83 84 82 72 66 64 59 53 55 52 48 42 44 43 38 40 41 45 40 35
112 102 99 94 94 93 83 88 81 81 75 72 66 49 59 70 71 74 76 76 73 70 68 72 76 81 82 76 70 63 59 58 58 54 50 47 45 43 43 38 37 41 45 44
102 96 82 75 72 72 70 63 61 61 60 60 51 39 54 62 63 66 71 74 70 70 67 69 75 79 82 77 69 64 63 63 60 56 50 48 42 44 45 35 35 39 41 41
86 76 64 62 58 56 54 53 50 49 43 46 45 45 48 50 52 58 67 70 67 65 62 65 73 78 77 73 69 68 69 66 61 57 52 49 47 45 41 41 49 53 48 42
73 64 58 52 49 47 42 40 37 36 37 39 35 39 38 39 44 52 56 61 63 62 62 66 73 76 75 72 72 72 70 68 64 58 54 52 52 48 44 43 35 52 54 43
64 59 48 41 38 35 34 35 31 31 33 32 32 33 31 36 37 40 45 53 58 60 62 65 71 74 74 72 74 74 71 69 65 62 57 56 56 53 51 52 48 53 55 55
58 48 39 32 28 25 24 24 25 27 29 33 34 31 35 35 33 28 43 50 54 61 66 66 70 75 78 77 77 75 73 69 67 66 62 61 60 58 60 60 61 61 60 60
47 38 34 26 19 17 18 19 21 25 29 31 33 31 34 39 45 34 30 47 55 60 65 69 70 73 75 76 77 74 71 69 68 66 65 65 63 64 65 65 64 63 62 62
36 28 26 22 16 15 17 21 22 20 25 30 33 34 35 39 47 44 40 49 51 64 68 68 71 73 74 75 75 75 73 71 69 66 67 67 66 65 66 69 66 62 61 61
25 17 17 16 13 15 17 19 20 23 28 30 31 35 38 45 53 54 56 58 45 53 66 59 63 69 70 71 71 72 71 70 69 68 67 70 69 67 67 72 66 62 60 59
18 11 12 16 16 20 21 23 29 30 31 34 36 39 46 52 59 59 59 51 40 38 44 47 57 61 62 67 70 71 71 70 70 69 69 69 69 68 70 71 70 67 65 59
19 14 12 16 20 24 28 33 34 35 37 41 43 44 45 56 63 57 51 51 47 29 37 49 52 51 56 63 67 70 70 70 71 72 72 71 70 70 72 74 73 70 62 61
19 14 15 21 26 27 31 34 32 33 42 41 46 48 46 44 47 45 46 43 32 34 29 29 32 45 52 55 58 65 67 68 70 69 69 70 70 72 72 72 70 64 56 62
20 19 23 29 30 35 37 37 35 37 44 48 45 45 44 44 44 43 46 42 39 33 31 32 33 37 39 48 55 59 62 61 61 64 69 71 72 72 71 71 71 70 67 64
25 24 31 35 39 44 45 42 43 42 43 44 46 44 45 43 44 44 42 41 40 42 41 39 34 35 33 37 42 47 51 55 60 65 66 64 65 64 66 67 65 65 67 63
25 30 37 39 48 53 52 51 50 47 44 47 49 48 48 49 48 49 50 48 46 44 48 47 45 42 42 45 42 45 47 51 52 52 54 56 58 58 59 62 61 59 59 58
29 34 39 44 53 55 57 57 54 52 49 48 51 48 44 48 51 53 53 49 44 50 47 44 46 47 49 51 50 52 50 50 53 54 56 56 57 55 54 53 55 57 59 58
31 37 42 46 55 58 60 59 58 54 54 51 49 46 46 45 48 51 50 45 48 54 54 53 51 51 53 53 49 51 47 43 45 43 45 46 48 50 50 49 51 54 53 49
35 38 40 51 56 57 57 57 62 59 55 52 49 46 47 46 45 56 51 51 52 52 55 53 55 56 58 56 57 53 48 43 44 44 50 48 47 48 46 50 50 49 38 39
39 41 45 47 55 59 57 60 56 58 59 56 53 52 48 49 49 50 51 54 57 56 56 54 54 55 55 56 54 54 53 49 47 48 52 48 50 48 45 45 50 48 49 53
39 41 48 47 54 57 61 54 59 59 59 59 54 51 53 54 52 51 53 50 51 53 55 59 60 61 61 59 58 55 54 55 55 52 57 52 52 54 49 49 50 52 55 54
40 43 46 51 52 55 58 59 59 58 59 60 61 61 60 60 61 60 61 63 62 61 60 60 60 60 62 63 62 62 60 58 57 56 62 61 58 59 59 55 56 59 63 64
38 46 49 51 52 56 57 58 58 62 63 63 62 62 63 64 65 64 63 65 65 67 68 70 70 71 70 68 67 66 66 64 63 63 68 69 69 69 67 66 64 63 64 72
37 43 50 55 54 57 58 61 61 62 62 64 66 66 65 65 65 66 67 68 69 70 70 70 71 72 72 72 72 72 72 70 70 71 72 75 76 76 74 73 72 72 73 70

GFSCGP_250_spd_120.txt.gz
Wind_Speed
86 88 92 93 93 93 98 101 95 94 96 97 107 111 109 99 93 107 103 97 95 97 98 99 88 80 75 73 62 66 76 78 68 62 62 56 52 47 42 44 43 44 48 46
90 97 98 98 103 104 102 97 98 94 94 102 102 116 116 110 108 109 109 104 97 102 103 105 97 89 83 72 54 68 81 80 69 65 64 58 53 47 43 44 43 41 44 43
95 99 97 97 104 107 95 98 100 104 98 100 101 93 99 100 99 103 107 110 114 112 111 107 100 92 79 67 59 69 79 77 70 67 67 60 53 49 46 44 44 39 41 42
90 91 95 98 99 105 90 102 96 96 93 87 89 67 76 79 81 78 83 88 96 99 104 102 96 89 62 59 65 71 76 77 73 71 68 62 57 51 47 45 41 37 36 38
88 91 96 94 85 90 89 91 84 83 80 74 76 57 67 61 63 61 63 71 76 81 85 86 81 73 62 64 66 72 76 78 78 73 69 66 59 55 49 46 43 40 36 35
91 94 87 81 81 79 74 70 65 60 59 55 53 53 53 51 52 51 53 57 62 68 65 65 64 61 60 64 70 73 78 79 80 76 73 69 63 57 50 49 46 43 43 41
87 87 78 73 66 59 55 52 49 46 44 44 45 41 42 40 39 41 45 51 54 51 51 54 54 55 59 66 67 71 75 79 80 78 75 70 65 58 52 51 48 45 43 46
86 79 69 61 52 49 45 42 40 34 33 34 33 33 30 29 33 34 35 37 40 43 46 49 51 58 61 63 67 68 75 79 80 79 76 72 68 61 56 54 53 52 44 42
78 75 61 53 51 42 34 33 31 26 27 28 29 31 29 29 34 35 32 30 32 35 40 46 51 57 58 60 65 69 70 79 80 79 78 73 69 64 59 58 56 56 48 50
75 63 54 49 44 33 27 23 21 22 22 24 26 25 30 30 28 31 33 25 27 33 38 44 50 54 56 59 63 67 70 76 79 80 81 76 71 67 64 62 61 60 54 52
63 51 48 42 33 23 18 13 15 18 16 19 22 24 29 34 33 31 32 30 20 32 36 42 48 52 54 57 60 66 72 74 76 78 78 75 73 70 67 66 65 63 59 58
49 49 41 33 22 17 15 13 15 17 16 18 20 24 28 34 37 40 41 38 27 22 34 37 44 49 53 56 59 67 72 72 72 73 74 73 72 71 69 68 69 70 67 63
46 42 33 26 17 16 14 17 18 17 19 21 25 32 33 34 36 35 39 39 35 40 34 24 45 40 55 57 58 64 69 72 72 72 72 71 71 71 70 68 68 69 69 68
42 33 25 17 14 16 19 20 19 20 23 28 29 31 39 42 38 36 37 41 38 35 31 29 34 42 45 53 55 59 67 71 74 75 75 74 74 73 72 69 67 70 70 69
37 27 20 11 14 21 23 23 22 25 27 28 30 35 41 44 40 37 40 42 39 34 31 29 30 38 43 51 56 59 61 66 72 75 76 76 76 75 74 72 70 70 70 69
31 23 15 15 20 27 29 24 25 30 29 31 34 43 46 45 44 43 44 38 36 36 37 37 35 38 40 40 45 55 60 62 67 74 73 75 78 78 77 76 75 76 75 73
26 21 18 24 27 31 33 26 28 33 32 34 37 43 55 50 49 49 43 44 44 46 41 38 33 26 27 33 40 44 49 54 60 66 69 71 74 75 77 78 79 78 78 77
22 21 25 35 36 41 39 32 33 38 36 42 39 43 53 57 54 56 52 49 50 41 39 38 37 35 35 33 35 39 43 46 52 56 60 62 67 72 75 77 78 80 80 79
21 23 28 39 43 43 46 41 42 42 42 46 44 46 52 59 61 60 58 54 49 49 46 44 42 42 44 40 41 40 42 45 45 48 53 58 63 66 69 71 73 73 72 72
24 24 32 43 51 48 49 45 49 46 43 45 49 50 51 53 56 58 59 56 54 46 46 48 49 49 51 48 46 45 46 47 46 49 50 54 58 62 62 63 63 63 62 63
28 25 33 45 54 54 51 50 52 52 47 46 47 51 49 54 52 55 57 60 59 52 48 54 57 57 59 56 53 51 54 54 55 53 55 55 54 58 58 56 57 58 59 60
30 30 31 43 53 63 57 56 55 54 53 49 47 49 52 52 50 52 52 55 56 57 54 55 56 55 53 57 57 58 57 57 57 57 57 60 56 54 52 52 53 55 55 55
29 32 34 40 49 59 66 62 60 59 56 57 55 51 53 48 50 51 51 51 52 58 64 62 58 59 59 59 62 60 58 61 62 61 62 62 58 58 57 54 55 58 58 57
31 32 36 37 42 51 59 69 65 64 61 61 61 61 57 56 56 56 55 55 54 53 59 67 65 68 67 66 67 65 63 64 65 66 64 64 64 63 63 63 62 64 63 64
32 32 36 40 41 44 54 62 68 70 67 66 63 64 61 61 62 59 60 59 59 60 61 62 65 67 67 66 68 70 71 71 71 70 67 66 68 69 69 67 66 70 71 67
32 33 36 40 42 44 46 53 63 67 66 67 68 67 64 66 66 66 65 63 62 64 66 68 70 70 72 74 75 74 76 76 75 75 76 77 75 73 72 72 70 72 79 79

GFSCGP_250_spd_123.txt.gz
Wind_Speed
83 84 80 80 83 84 86 86 87 90 93 101 96 100 92 93 101 104 107 105 102 100 98 103 102 92 92 92 92 88 82 80 69 58 63 69 68 62 60 56 49 49 45 45
83 83 84 84 86 88 92 94 96 92 99 101 98 98 97 93 99 111 109 109 111 109 107 107 103 100 100 98 94 90 85 76 69 58 61 66 71 66 63 58 53 50 46 44
80 81 85 86 89 91 95 97 95 93 89 93 97 98 101 105 107 107 110 113 112 111 114 112 105 103 99 102 96 94 85 80 67 63 60 61 70 71 65 62 58 55 50 43
82 83 87 90 91 90 91 95 90 84 87 85 91 82 87 91 95 92 90 99 102 103 105 108 112 116 109 103 97 91 84 73 66 60 61 64 70 73 69 67 60 55 49 46
85 85 85 84 86 89 89 82 81 83 85 81 79 76 72 77 78 68 64 68 72 74 82 92 105 110 111 102 94 91 85 74 70 68 70 65 67 76 74 69 61 56 50 47
84 83 81 82 86 85 77 74 74 71 72 71 66 65 63 59 58 56 53 53 56 60 66 71 82 97 103 95 92 88 87 84 79 74 71 61 65 75 75 70 62 59 54 50
79 78 79 85 85 74 70 64 59 58 55 51 49 48 46 43 44 44 43 44 45 47 52 57 65 75 83 86 92 91 89 85 78 72 71 66 69 73 75 70 66 60 54 51
78 74 78 83 76 66 59 52 47 45 43 40 37 38 33 33 31 32 32 32 32 35 39 44 52 60 66 70 78 84 82 78 77 74 69 72 70 73 76 71 66 62 55 53
69 75 76 75 67 60 52 43 40 37 35 30 30 30 30 29 26 26 26 25 23 25 30 33 38 46 53 58 64 68 71 71 69 66 68 68 72 75 77 72 68 65 60 56
66 71 76 69 62 53 43 36 32 28 24 19 24 24 26 24 23 25 24 24 23 23 25 26 31 36 44 51 59 62 66 68 68 71 74 70 72 76 76 72 71 68 65 60
65 70 71 66 54 43 36 31 23 21 18 15 16 20 24 26 23 26 24 22 21 21 17 22 27 34 38 45 53 59 63 65 74 70 69 74 73 68 75 79 72 72 68 64
63 65 65 55 42 34 30 23 19 17 16 14 18 24 23 24 24 24 29 28 28 30 21 13 21 26 30 41 52 57 60 67 76 78 71 68 80 82 83 82 77 73 72 68
60 61 56 43 34 30 25 19 18 15 18 18 18 19 21 22 26 23 29 26 29 29 31 29 28 26 18 37 49 57 58 64 67 72 77 84 88 86 83 79 77 77 74 72
58 54 46 34 28 27 23 16 15 16 19 18 20 21 21 26 26 25 29 31 29 33 32 31 33 38 37 36 43 51 55 57 59 64 68 68 77 80 79 79 78 77 75 74
55 44 37 29 26 25 20 16 16 19 19 18 21 24 26 24 26 27 29 29 22 21 20 28 20 25 27 27 41 42 46 50 55 59 63 68 72 76 77 79 79 78 74 72
49 35 30 25 25 23 23 20 18 21 20 22 26 28 31 30 32 33 26 32 24 20 27 23 30 28 26 36 32 34 40 47 51 54 58 64 69 71 74 76 77 76 74 73
40 31 26 25 26 28 28 24 24 24 24 25 27 37 39 36 35 38 32 33 32 26 24 28 29 30 34 41 40 36 39 44 49 54 58 64 68 71 73 73 77 78 77 77
33 27 23 27 28 32 35 26 30 29 26 28 29 35 44 41 41 41 38 35 36 34 33 32 31 30 30 32 35 39 40 41 46 50 55 59 64 69 72 75 78 79 81 81
31 25 23 28 31 34 38 35 33 36 33 32 33 35 45 48 45 44 44 40 40 41 41 38 36 36 36 37 34 34 36 40 41 43 48 53 58 63 66 70 76 79 82 84
29 25 24 28 34 36 43 42 38 39 38 37 37 38 41 46 50 51 48 47 45 44 46 46 43 42 38 41 40 39 39 39 41 43 45 49 53 58 60 63 65 70 75 80
30 26 24 28 35 39 46 47 43 43 40 41 41 43 45 43 50 56 56 50 50 49 48 49 50 48 48 51 49 47 47 46 46 45 47 48 48 49 52 55 57 60 64 69
31 27 25 28 33 43 45 54 53 46 46 46 42 45 48 48 48 50 55 57 55 53 53 52 54 53 54 53 56 59 56 57 55 54 54 54 55 54 57 58 61 63 66 68
30 29 28 27 32 40 48 52 57 59 54 50 48 48 46 54 51 52 59 58 58 61 62 60 60 60 57 57 59 60 63 64 65 64 63 63 64 64 64 67 66 65 69 69
29 30 30 28 29 39 46 54 59 61 60 58 54 52 50 49 53 56 58 58 61 62 62 63 66 67 62 64 64 70 70 72 72 76 75 72 72 73 74 75 73 70 69 71
32 29 29 29 29 33 43 51 57 63 66 65 63 60 56 54 52 50 54 54 58 62 61 66 67 67 70 75 77 76 74 77 77 78 76 75 73 75 78 78 74 73 73 73
35 30 29 29 30 32 38 47 55 59 63 67 68 67 65 64 63 60 58 56 55 58 60 62 63 65 65 67 70 71 74 76 82 84 82 78 80 80 81 84 86 85 83 82

GFSCGP_250_spd_126.txt.gz
Wind_Speed
78 80 77 76 78 80 81 81 80 84 91 89 92 88 90 98 103 103 100 99 98 97 98 98 100 102 96 99 93 91 91 88 88 84 78 70 68 69 57 56 58 58 60 54
84 82 83 82 80 79 80 80 82 83 91 93 94 90 98 97 100 97 98 102 103 102 103 107 109 106 106 106 104 101 99 96 93 90 78 76 75 72 67 59 60 61 63 58
85 85 85 84 84 82 84 86 86 86 90 96 95 87 96 92 92 94 99 98 99 102 106 110 109 110 112 114 112 109 105 100 95 91 80 74 76 73 67 64 62 62 64 60
88 87 85 84 85 85 88 90 89 88 88 86 91 80 91 89 84 81 85 87 86 88 90 94 104 110 113 115 114 112 108 103 101 96 87 80 76 75 73 70 64 61 66 64
87 87 86 83 83 86 88 86 87 89 84 77 79 79 75 78 80 80 73 70 74 78 80 83 86 94 105 115 116 114 109 107 102 97 86 65 66 74 70 71 69 62 69 66
85 85 84 80 83 85 85 85 83 81 78 73 69 67 64 63 68 67 62 55 58 60 60 66 73 82 93 103 110 114 105 106 103 94 85 65 81 79 73 76 74 65 64 66
82 81 81 80 83 82 83 81 77 76 71 63 58 53 51 51 52 53 51 50 50 50 51 52 56 63 74 87 102 106 101 101 100 97 91 88 86 90 92 85 74 64 65 63
81 76 76 79 78 75 78 73 71 67 56 52 46 40 38 33 35 37 39 42 39 40 44 45 45 49 56 66 79 92 99 102 100 96 100 97 93 98 100 88 68 63 63 63
78 76 75 73 69 72 74 68 64 54 49 44 40 32 26 24 24 27 30 30 29 30 31 33 35 38 43 50 60 71 79 92 100 98 100 103 101 95 90 81 65 60 64 64
74 75 69 61 67 70 69 62 56 48 42 36 30 21 20 20 21 26 27 28 25 24 25 20 22 29 32 39 47 56 64 78 91 92 98 94 89 87 83 63 66 62 65 62
67 65 58 61 67 69 67 59 50 41 34 28 22 17 20 20 23 26 25 25 23 20 19 17 14 17 23 28 37 47 53 61 78 92 83 82 81 86 75 67 62 58 59 61
58 57 56 61 66 67 63 50 44 34 26 19 16 17 19 22 25 25 23 23 23 21 18 18 11 11 16 20 30 37 43 51 60 72 78 76 66 67 62 57 58 63 61 68
51 52 56 63 66 62 57 44 35 25 18 13 14 17 19 24 24 21 18 17 15 23 25 25 23 18 13 7 17 24 31 37 42 44 49 54 56 55 53 61 63 68 71 70
47 50 53 59 60 55 48 39 30 20 12 11 12 18 24 24 24 20 17 15 22 25 31 24 26 23 19 12 9 18 24 31 36 32 37 53 60 66 69 73 73 67 70 76
48 50 51 58 57 47 44 33 25 16 12 12 18 22 26 25 23 18 19 17 25 27 28 33 26 24 24 22 17 14 23 33 43 47 51 60 65 73 75 79 80 81 73 76
49 47 51 56 48 39 38 31 24 15 16 17 21 24 26 26 23 21 22 23 19 24 28 27 24 30 31 32 27 19 28 34 51 60 62 66 67 67 73 79 83 77 79 81
47 46 47 49 39 34 34 31 25 20 21 19 25 28 28 31 28 26 29 25 26 22 23 26 24 25 31 31 25 28 26 32 38 47 53 66 70 73 73 79 79 80 82 89
45 47 45 41 35 32 34 29 28 26 27 24 26 30 33 34 31 32 32 28 24 25 25 26 27 28 31 31 32 32 36 37 35 38 43 52 61 66 69 72 75 76 75 80
46 47 47 36 33 31 30 28 33 31 30 30 29 28 33 40 39 36 39 31 32 29 29 28 31 35 35 35 38 40 42 42 41 41 45 47 50 57 60 62 66 70 72 75
48 48 43 34 30 30 28 33 35 37 36 34 33 31 31 36 49 45 43 42 35 39 38 35 34 33 33 35 34 34 35 36 36 37 41 44 44 48 54 57 60 64 68 73
49 45 39 32 30 30 28 35 38 41 42 39 39 37 35 36 43 49 50 47 44 43 42 42 42 42 42 40 38 39 41 42 42 41 41 42 42 45 48 51 55 60 65 68
49 43 33 31 31 30 32 34 41 44 44 45 42 40 38 37 40 44 49 53 51 51 48 47 49 49 50 49 49 46 47 50 49 49 49 50 51 52 54 56 56 57 57 59
50 39 32 30 31 32 33 38 41 45 47 50 48 45 41 42 45 44 46 48 52 53 56 54 54 54 58 56 58 58 58 59 59 59 62 62 63 63 63 62 64 66 65 65
48 39 32 32 30 33 33 37 42 47 50 52 53 55 51 45 42 47 50 50 53 53 53 58 58 63 63 63 63 66 65 65 69 68 72 75 73 73 71 76 74 76 77 75
44 38 35 33 32 33 35 38 41 49 52 55 55 56 57 55 51 48 46 50 53 56 56 55 59 63 67 70 71 73 75 76 76 76 74 77 79 79 80 81 85 84 84 85
41 37 37 34 33 32 34 37 40 45 52 58 59 60 60 60 57 56 55 54 52 50 50 52 54 58 60 64 74 76 78 80 82 83 83 84 86 88 90 90 90 92 88 92

GFSCGP_250_spd_129.txt.gz
Wind_Speed
71 74 76 79 77 78 80 79 83 87 85 83 85 83 91 94 98 93 92 94 96 100 100 101 100 103 102 100 98 94 86 86 87 88 81 80 70 73 76 67 69 69 67 63
79 78 81 82 81 83 83 85 84 84 85 85 86 85 89 95 93 88 90 95 95 96 100 103 103 105 107 107 102 100 96 91 89 86 84 79 76 78 78 78 75 71 73 70
84 84 85 85 87 89 91 89 90 95 96 94 87 82 88 91 93 87 93 98 99 98 98 102 105 109 109 108 107 106 106 99 95 91 89 86 83 84 79 76 74 76 80 77
81 84 87 89 91 91 94 91 90 91 91 91 90 80 92 87 90 91 88 92 88 87 85 88 94 95 97 100 109 113 112 109 105 96 91 90 87 88 84 83 86 88 79 74
84 86 88 90 93 92 90 87 88 89 88 88 91 86 87 82 82 80 78 78 75 73 75 74 77 83 84 88 99 108 116 114 106 103 98 93 88 86 80 76 79 81 80 76
82 83 85 88 89 89 88 89 90 87 85 88 84 81 75 77 75 72 68 67 63 61 62 59 61 67 74 79 84 97 108 115 109 101 99 88 88 87 76 69 69 74 89 83
84 86 85 85 87 87 88 91 88 83 87 81 74 72 70 67 61 59 56 53 51 51 55 51 48 51 58 67 74 83 93 106 113 92 96 84 74 82 66 41 46 89 78 85
89 86 86 86 89 88 87 85 82 83 84 78 72 65 59 53 51 50 45 40 38 40 42 43 37 37 42 49 59 69 79 89 98 97 90 79 71 82 80 74 75 62 74 74
92 89 89 89 87 86 86 78 77 80 79 71 64 54 50 45 44 39 37 33 28 28 32 33 31 28 30 36 42 54 65 75 86 92 92 88 76 82 88 88 87 89 93 75
95 93 89 86 84 81 74 71 74 78 71 66 55 46 41 38 35 26 28 29 30 34 28 30 29 26 23 25 33 42 52 64 74 83 89 90 79 80 85 91 90 92 92 97
94 90 85 82 79 71 69 69 74 69 61 56 47 39 33 31 25 21 23 27 29 29 31 26 24 19 16 19 28 37 45 56 65 74 81 84 88 86 85 92 94 94 90 93
87 83 79 78 65 65 62 66 71 59 55 47 38 34 31 24 20 20 24 26 28 35 24 27 11 7 10 16 25 31 38 45 55 66 78 85 87 90 95 103 99 94 89 93
78 76 72 61 60 55 59 66 63 52 46 39 33 30 27 18 18 20 23 23 28 16 21 11 11 9 10 14 13 19 28 36 45 53 66 81 90 96 101 102 94 95 95 88
65 61 55 50 50 53 60 64 57 50 39 33 29 28 20 17 17 20 23 22 20 17 15 17 12 14 10 10 7 10 17 24 32 42 50 58 70 75 76 79 89 92 91 87
48 46 41 47 52 57 60 59 53 42 34 26 25 22 14 19 19 23 23 17 20 18 21 14 13 16 13 10 8 4 10 16 20 25 21 27 37 45 57 62 63 62 58 59
35 38 42 49 53 56 59 56 51 36 30 23 19 19 17 20 23 25 24 22 22 20 26 20 20 18 19 18 10 16 11 18 32 32 29 30 32 33 41 39 45 52 59 59
36 41 46 49 53 55 54 52 43 35 28 24 22 21 23 26 29 28 25 25 19 21 26 24 20 19 22 20 19 24 13 15 27 40 37 35 38 41 46 55 59 63 65 64
40 45 46 49 50 52 51 45 37 34 28 26 27 23 23 24 30 32 27 29 24 23 26 28 22 23 24 24 24 23 20 23 25 31 44 45 44 49 56 57 63 67 72 72
44 46 47 47 48 48 49 39 33 34 31 28 30 29 27 26 28 35 32 32 28 27 27 29 28 26 31 30 30 27 29 33 36 33 39 52 56 55 60 58 61 65 78 79
45 48 47 47 47 47 46 36 34 33 33 32 30 33 31 30 30 33 36 35 37 35 34 35 34 33 35 36 39 39 38 37 39 39 41 42 45 51 54 58 63 71 71 82
48 49 49 47 48 46 41 36 35 33 35 37 36 35 36 32 31 32 34 40 42 43 39 39 38 36 35 37 41 42 45 44 45 45 45 44 43 42 48 52 54 60 74 79
51 51 50 48 49 46 40 38 36 37 34 38 41 41 39 39 35 36 33 35 43 47 47 45 44 43 43 42 43 44 45 46 45 46 46 45 45 47 47 50 54 56 61 65
54 53 51 48 48 44 40 38 37 38 39 37 42 47 46 45 43 38 37 36 39 45 45 51 50 50 51 51 49 50 52 54 56 56 54 57 58 60 60 59 61 62 63 65
54 54 51 48 46 40 39 38 39 40 40 41 43 46 47 47 46 46 45 42 43 44 45 49 50 56 57 54 56 60 62 64 63 63 64 65 66 68 70 71 72 72 74 73
55 54 52 49 42 38 38 39 39 41 42 42 47 50 51 50 48 47 46 48 47 45 47 47 51 55 57 60 60 65 69 70 71 72 76 77 76 78 81 80 80 84 83 85
55 54 53 46 41 38 37 39 39 41 42 44 46 50 53 54 54 53 51 50 48 49 50 50 50 54 58 59 62 63 67 71 78 81 81 83 85 87 88 90 88 88 86 85

GFSCGP_250_spd_132.txt.gz
Wind_Speed
69 74 73 71 72 72 73 75 77 79 81 82 85 87 89 92 89 91 93 99 101 100 100 102 104 106 103 105 105 104 106 103 94 93 89 89 84 80 74 65 68 76 74 70
74 76 76 76 78 80 80 82 83 83 86 88 89 89 92 92 87 88 95 95 93 94 96 99 103 106 107 106 105 106 103 103 104 101 96 94 92 81 77 74 76 75 70 64
67 75 77 81 81 83 84 85 85 86 87 88 86 90 99 95 87 91 90 88 88 92 94 96 96 99 102 102 102 105 106 104 108 106 100 94 93 84 75 72 75 74 67 68
82 77 72 80 82 83 86 85 86 88 90 92 97 88 95 91 90 95 91 89 86 87 86 83 82 87 90 93 95 99 104 107 107 113 103 92 90 82 69 70 70 69 71 71
84 81 80 76 78 83 87 85 85 86 88 88 89 88 86 86 93 92 90 86 82 80 76 74 72 72 71 74 79 84 90 101 109 111 103 94 88 83 63 68 67 64 69 72
86 83 85 82 79 81 83 84 86 87 88 88 93 85 84 87 87 83 82 81 75 70 69 63 58 58 57 60 66 72 76 86 97 106 97 92 88 83 54 65 68 53 61 70
88 84 85 86 85 84 84 85 87 87 87 85 90 85 83 84 79 77 75 73 64 59 54 54 53 51 50 52 56 61 65 74 82 92 89 83 82 77 64 63 50 98 71 67
86 85 82 83 86 81 80 85 88 85 85 84 85 86 83 79 74 73 71 63 53 48 49 48 46 44 38 41 45 47 52 59 68 78 76 77 75 70 75 68 58 67 72 50
84 79 79 82 86 88 85 86 88 85 84 84 83 83 77 74 71 69 62 53 43 39 37 32 31 36 30 28 29 33 38 48 54 63 67 69 68 62 69 54 62 66 70 52
82 79 78 83 85 84 85 87 89 90 87 82 78 79 71 67 69 59 53 44 38 21 30 31 37 36 30 24 19 22 30 38 42 51 57 64 64 63 69 71 67 74 76 56
76 76 75 77 75 82 86 89 90 87 84 78 75 70 67 62 56 48 44 36 24 22 24 36 28 28 29 20 18 17 26 33 39 46 52 63 67 64 72 77 76 80 86 87
73 72 72 76 80 87 87 87 84 81 75 70 68 62 63 52 47 40 37 25 16 17 27 22 19 29 18 19 16 16 20 26 31 45 53 64 71 76 68 70 80 91 87 99
71 76 79 78 85 83 86 81 77 71 64 65 61 59 54 46 40 36 32 13 11 25 28 27 26 6 13 9 7 12 14 23 32 37 48 58 68 74 77 85 83 80 82 86
58 60 65 75 74 69 66 66 61 60 60 59 59 54 46 40 34 32 26 16 7 21 24 26 10 8 5 10 8 4 9 13 21 29 35 53 66 75 78 83 88 88 90 91
56 58 58 58 56 56 56 51 54 58 60 56 56 46 40 34 29 28 22 17 13 18 30 27 18 12 5 6 7 7 11 16 14 17 26 41 54 69 79 86 88 85 87 90
42 46 46 48 48 45 43 47 54 59 60 56 48 39 36 28 24 22 21 17 18 17 31 26 24 15 10 10 11 11 11 12 19 24 27 26 30 47 61 74 83 90 91 90
47 47 45 38 35 37 47 53 56 59 59 54 42 34 29 26 22 22 23 23 21 19 30 32 22 16 13 13 9 8 14 17 24 27 27 33 37 38 47 53 64 77 89 97
39 37 34 35 34 41 51 55 56 57 56 50 39 33 26 24 23 23 24 29 26 24 22 28 25 17 17 19 15 13 15 23 29 26 31 28 34 35 38 40 47 53 62 64
34 35 37 34 39 46 52 53 56 55 52 45 37 33 29 27 28 26 28 38 32 32 28 25 26 25 22 22 20 19 20 19 29 34 37 35 38 42 44 47 44 47 52 60
35 35 32 37 46 48 52 53 57 55 51 42 38 34 32 30 29 29 28 30 31 33 32 29 28 33 29 29 29 29 28 29 30 32 36 39 45 49 50 52 52 55 56 62
33 30 36 45 51 52 53 55 57 54 51 41 38 36 36 33 31 32 30 30 29 31 34 35 34 33 33 36 36 37 39 40 39 37 39 41 45 46 50 53 62 65 66 66
29 35 43 50 55 55 53 57 56 55 51 43 38 37 36 37 37 32 31 31 31 31 32 41 43 40 43 41 40 39 40 46 47 48 47 49 52 54 55 56 59 61 64 67
32 42 49 53 58 55 56 58 55 55 50 43 39 38 38 40 43 42 38 37 37 34 35 36 42 52 50 48 48 46 46 49 50 53 57 59 61 64 63 62 62 60 62 64
36 45 53 57 55 55 57 55 56 51 46 43 41 39 39 40 45 49 49 46 41 42 41 38 41 41 41 52 58 57 55 55 57 58 62 62 66 69 70 69 69 68 69 70
44 53 54 54 54 57 55 55 51 46 45 44 42 42 42 42 45 50 52 53 53 50 44 45 45 46 48 48 50 52 58 67 66 66 67 70 73 74 76 77 78 81 82 83
49 50 52 55 57 57 56 53 48 46 44 44 44 44 43 44 47 50 52 53 52 51 49 47 46 50 53 52 54 55 59 61 63 69 79 79 79 82 84 84 84 86 87 88

GFSCGP_250_spd_135.txt.gz
Wind_Speed
67 66 68 68 60 58 56 68 72 75 74 76 76 78 81 77 77 80 83 89 91 95 97 99 102 104 103 102 103 105 108 108 107 107 103 98 96 95 88 80 70 57 68 63
71 66 70 74 74 69 58 59 68 77 81 81 85 86 87 85 87 89 93 94 99 99 100 103 103 104 103 103 103 104 107 111 114 112 110 104 96 94 90 84 79 56 57 68
74 74 72 67 71 75 77 71 62 71 79 83 87 88 91 87 86 91 95 97 96 98 100 99 102 101 97 98 102 100 103 105 110 113 114 110 103 96 92 85 77 73 72 79
78 74 74 73 74 76 79 82 78 70 68 73 84 88 93 86 90 91 91 91 92 92 92 94 94 96 97 90 88 91 91 94 99 102 110 112 105 95 94 88 84 74 67 66
83 81 81 79 77 79 82 82 83 80 75 72 81 82 86 85 88 90 93 93 93 91 88 89 91 85 80 78 76 75 78 81 86 89 95 99 96 90 90 85 80 74 59 64
87 86 87 85 84 83 84 88 84 86 84 78 88 85 78 80 84 86 90 92 89 86 85 79 77 71 66 63 61 61 65 69 73 77 83 86 87 88 84 81 74 63 47 51
98 92 89 84 86 83 88 87 88 85 83 79 88 84 82 81 81 83 84 83 81 77 69 66 64 59 56 55 52 50 54 60 63 66 72 72 73 81 79 77 70 51 49 45
101 96 93 87 83 81 84 89 88 88 84 76 79 82 77 79 80 77 76 74 73 70 61 56 54 50 54 46 42 41 42 49 52 56 54 56 62 69 72 69 65 55 57 50
106 96 93 90 83 82 83 83 84 82 78 76 79 80 80 82 82 78 74 71 68 61 51 50 46 45 40 40 35 34 35 39 41 45 44 44 51 59 61 62 59 61 59 52
97 92 88 81 72 77 81 77 78 78 76 77 77 77 82 86 86 77 68 66 62 48 44 39 41 35 36 35 32 30 29 30 32 35 35 35 43 49 53 56 67 65 64 61
85 80 75 70 64 75 75 72 71 74 70 63 72 79 86 82 75 67 66 61 54 38 34 40 30 31 31 33 31 26 28 26 25 30 27 32 38 44 52 58 71 70 71 65
73 67 64 60 65 70 64 63 63 55 63 72 74 78 81 76 68 64 61 53 47 32 37 29 24 31 32 28 24 22 25 23 24 27 25 30 35 53 60 65 81 72 69 68
56 54 54 50 51 50 49 58 56 63 67 69 76 75 70 67 62 60 52 44 38 25 21 23 25 26 24 21 21 19 21 16 14 12 19 32 37 49 57 76 74 74 74 80
40 37 37 35 36 51 56 58 65 63 62 68 68 63 63 62 60 54 44 38 33 22 21 19 21 25 15 22 21 12 14 15 18 17 18 19 37 50 60 72 72 77 82 94
26 35 26 39 46 52 54 47 49 58 58 54 52 57 60 59 57 47 39 35 29 26 17 19 23 21 16 20 20 16 11 15 13 19 19 22 34 49 60 68 72 77 84 98
39 40 42 43 45 42 45 49 49 46 41 47 53 57 57 54 50 41 35 29 27 23 15 16 25 28 19 23 12 5 5 5 12 16 20 27 30 43 57 65 70 67 78 86
31 31 41 42 43 45 44 40 38 35 44 50 55 55 56 51 43 37 31 26 27 25 16 17 20 30 26 21 18 12 13 11 13 17 15 17 22 34 43 59 65 74 76 84
34 39 47 44 36 38 43 34 33 39 47 54 55 53 53 49 38 34 30 28 27 24 21 20 17 23 26 23 20 20 14 15 14 17 21 17 22 27 35 44 58 73 79 78
38 37 34 36 37 30 33 33 37 47 52 55 55 55 54 49 40 33 30 30 30 31 28 24 22 21 23 23 21 24 16 17 22 22 25 28 32 32 34 38 47 55 65 73
36 37 34 25 26 29 33 32 41 49 55 58 56 56 54 50 43 33 32 29 29 31 32 34 30 28 25 27 27 25 25 24 25 29 30 33 36 39 38 42 43 50 57 64
28 25 27 29 29 28 32 35 47 53 58 58 59 59 53 48 44 38 32 32 30 30 31 31 35 34 31 28 34 32 31 32 32 33 37 39 40 43 44 43 47 51 58 64
25 27 29 30 28 30 32 44 52 56 56 58 58 58 53 47 43 40 37 34 35 33 33 32 33 37 39 36 34 36 40 41 43 41 41 43 45 49 50 52 55 57 60 62
27 29 31 30 33 32 43 50 55 57 58 58 57 58 52 45 41 40 40 38 37 37 37 36 35 34 41 45 44 44 45 45 45 47 49 50 54 54 55 58 59 60 63 65
29 30 31 35 36 42 50 53 54 57 58 60 58 54 49 45 41 41 42 42 43 43 42 42 41 40 40 42 49 56 54 54 55 54 56 56 58 59 61 64 68 68 71 74
29 32 37 41 44 53 51 55 56 60 60 59 53 49 46 45 44 43 44 45 46 50 52 51 48 47 48 48 50 53 57 59 65 66 66 64 65 66 69 73 75 78 82 86
34 36 41 47 52 52 57 58 61 60 60 55 51 48 46 45 45 45 46 48 49 53 56 56 54 55 54 50 52 56 58 60 64 66 72 77 78 79 81 82 84 86 87 89

GFSCGP_250_spd_138.txt.gz
Wind_Speed
72 72 67 65 61 61 61 63 65 65 63 60 59 61 62 67 73 75 77 80 83 83 85 87 89 92 94 94 95 96 98 100 107 110 108 107 102 98 97 91 85 76 63 39
74 70 71 67 66 65 63 63 64 65 71 70 71 63 69 76 78 79 85 89 91 94 95 96 97 99 101 104 104 103 106 110 112 113 112 110 108 100 96 95 89 79 70 66
78 75 76 76 74 71 71 72 71 69 68 73 77 78 74 66 66 78 88 92 95 97 98 100 104 106 110 111 109 109 107 107 102 103 104 105 103 103 95 91 90 85 77 67
82 82 84 83 80 79 76 79 78 75 74 76 78 81 77 74 70 71 80 85 92 98 102 103 107 109 111 110 105 99 99 97 93 93 93 97 100 103 101 96 93 89 81 73
86 89 90 90 86 85 83 81 78 79 80 79 81 88 76 75 79 80 79 81 84 85 86 89 96 97 97 98 97 93 91 92 89 86 82 82 86 89 89 92 87 86 79 77
90 94 92 89 88 89 87 87 85 86 84 78 79 88 73 76 86 86 83 82 82 79 80 85 88 87 90 87 84 83 80 79 76 74 71 72 73 75 79 80 81 81 76 74
99 94 94 96 92 91 92 94 93 88 87 84 89 86 77 77 82 85 85 84 76 74 77 80 81 81 79 74 69 64 61 59 64 65 64 62 62 60 67 69 72 74 73 67
104 102 101 100 95 96 93 94 93 88 87 81 81 80 78 79 75 78 79 79 72 71 66 65 64 68 65 61 57 50 48 53 55 57 56 53 51 45 51 59 62 60 66 63
107 104 104 103 98 103 98 91 86 83 77 75 76 74 71 73 75 76 78 73 70 66 61 59 59 59 55 52 47 41 39 43 44 43 46 44 36 35 44 51 53 54 61 63
100 98 105 103 101 97 93 87 79 73 71 72 70 70 68 71 72 76 70 71 69 65 60 57 57 52 48 44 40 36 37 37 36 36 39 38 28 30 39 43 46 51 59 62
102 95 97 96 93 87 81 74 68 67 65 65 63 62 66 69 67 66 69 68 68 59 58 54 50 45 40 38 35 34 30 31 34 31 34 33 24 26 33 39 46 52 63 65
85 84 82 80 79 75 68 62 61 60 58 60 60 59 56 58 65 66 69 68 63 55 56 48 43 35 32 31 28 23 28 29 33 31 27 25 20 17 29 37 46 61 66 73
68 65 63 64 62 57 57 55 52 52 54 52 52 48 56 60 63 67 67 63 57 54 50 37 37 31 28 30 28 23 24 25 29 26 23 22 20 25 32 38 47 58 69 78
50 45 45 47 48 45 44 43 43 45 37 44 49 53 56 62 62 61 59 59 55 48 40 32 31 32 28 25 29 25 23 24 23 23 14 13 18 25 34 42 55 66 68 84
33 30 30 30 29 31 30 34 34 28 43 47 52 53 54 58 53 54 58 56 51 41 34 27 28 30 25 24 19 25 26 21 25 24 20 18 20 31 38 44 54 65 74 79
29 26 26 24 18 21 21 19 33 43 46 50 53 49 52 46 52 56 55 53 46 37 30 29 26 27 26 26 22 23 23 21 18 22 18 17 22 24 34 42 53 64 80 74
27 30 28 29 30 19 26 31 42 45 45 44 44 39 45 50 55 55 49 49 43 34 31 26 26 24 26 29 26 24 24 20 18 22 18 14 19 22 28 40 51 58 66 75
28 28 31 35 28 28 36 38 40 39 38 33 31 40 46 53 55 53 48 48 42 35 32 29 28 25 23 23 21 23 23 25 21 23 25 19 19 21 27 36 47 54 65 71
34 37 30 26 24 30 34 34 32 29 25 28 36 44 49 55 56 54 51 47 42 36 33 32 31 28 22 22 21 22 25 24 24 22 23 21 20 23 26 34 47 58 66 71
27 27 27 25 25 27 26 27 21 26 29 33 41 47 53 56 58 54 53 49 42 37 35 34 35 33 30 28 25 25 28 27 26 27 26 26 27 28 28 31 38 47 57 65
26 26 26 24 23 26 19 21 27 26 32 40 45 51 56 57 58 55 54 51 44 37 36 38 37 34 36 36 33 31 32 34 32 30 32 32 33 37 38 38 37 43 46 59
24 23 20 20 21 23 24 26 26 29 38 44 50 54 58 59 61 60 54 50 46 40 37 40 41 38 37 39 42 40 37 39 40 39 38 41 41 43 44 44 47 49 51 56
24 18 19 20 21 25 28 29 33 38 45 51 57 59 61 62 61 58 53 48 44 42 40 39 43 42 42 41 42 48 47 44 45 48 47 48 49 50 52 54 54 55 57 60
20 19 19 22 25 28 31 35 42 47 53 57 60 59 64 65 58 55 50 46 44 43 42 43 43 47 47 47 47 47 50 53 53 54 54 55 57 57 59 61 62 63 63 65
15 18 23 27 29 31 34 42 45 51 57 56 58 64 66 58 54 51 48 45 44 44 45 45 46 47 50 51 53 53 53 55 57 64 64 64 65 66 67 67 69 70 73 74
21 23 25 28 30 35 38 42 50 56 56 58 62 63 58 53 50 48 46 45 44 45 47 48 49 51 53 55 56 57 58 59 61 63 65 69 73 76 77 76 75 77 80 82